GFSFLT2_con_mlcape_000.txt.gz
CAPE
0 0 0 0 0 0 0 0 0 0 0 0 0 0 0 14 77 103 141 288 440 389 351 419 469 573 606 682 877 908 1154 1414
0 0 0 0 0 0 0 0 0 0 0 0 0 0 0 0 9 56 90 249 368 526 558 609 620 706 797 768 859 944 1090 1023
0 0 0 0 0 0 0 0 0 0 0 0 0 0 0 0 0 4 33 118 274 581 725 778 731 741 933 890 1063 1085 1001 851
0 0 0 0 0 0 0 0 0 0 0 0 0 0 0 0 0 0 11 79 146 485 728 840 805 801 984 1070 1109 1191 1049 801
0 0 0 0 0 0 0 0 0 0 0 0 0 0 0 1 3 0 4 33 87 287 583 742 775 920 1048 1209 1137 1196 1107 638
0 0 0 0 0 0 0 0 0 0 0 0 0 0 0 0 0 0 6 29 79 124 308 476 556 720 1016 1214 1230 1159 868 614
0 0 0 0 0 0 0 0 0 0 0 0 0 0 0 0 2 7 0 5 52 104 161 287 383 463 669 920 1100 1051 833 612
0 0 0 0 0 0 0 0 0 0 0 0 0 0 0 0 2 3 17 24 27 62 130 186 216 281 500 741 902 988 858 726
0 0 0 0 0 0 0 0 0 0 0 0 0 0 0 0 1 26 36 36 46 23 31 26 48 164 346 577 824 957 919 839
0 0 0 0 0 0 0 0 0 0 0 0 0 0 0 0 0 0 2 33 35 23 12 2 2 90 231 446 696 884 930 907
0 0 0 0 0 0 7 9 5 1 0 0 0 0 0 0 0 0 0 29 73 84 55 11 54 197 349 513 713 841 930 880
0 0 0 0 2 18 16 17 0 0 0 0 0 0 0 0 0 0 4 33 16 29 43 16 113 329 421 620 798 867 854 832
4 0 5 5 12 17 48 0 0 0 0 7 0 0 0 0 2 8 41 104 141 197 270 248 265 408 299 508 708 787 687 662
9 37 93 0 61 74 4 0 0 0 0 0 0 0 0 0 0 0 0 0 5 5 11 80 244 511 466 500 613 617 561 475
0 1 0 0 0 0 0 0 0 0 0 0 0 0 0 0 0 0 32 81 232 229 200 185 317 601 458 529 544 503 376 293
1 0 0 0 0 0 0 0 0 0 0 0 0 0 52 142 66 1 47 77 226 349 390 510 479 469 524 467 433 367 277 73
0 0 0 0 0 0 0 0 0 0 0 0 0 0 0 0 176 279 323 288 319 393 351 539 477 506 470 397 280 250 77 28
0 0 1 0 0 0 0 0 0 0 0 0 0 0 0 0 1 408 501 454 460 494 526 533 520 547 315 194 222 101 42 11
0 0 0 0 0 0 0 0 0 0 0 0 0 0 0 0 0 0 65 424 640 529 418 420 266 192 46 9 0 3 10 0

GFSFLT2_con_mlcape_006.txt.gz
CAPE
0 0 0 0 0 0 3 13 1 0 0 0 0 0 0 4 45 97 276 256 99 217 367 574 784 1056 1340 1676 2014 2182 2237 2425
0 0 0 0 0 0 0 0 4 0 0 0 0 0 0 1 41 115 238 310 185 221 348 531 776 976 1317 1597 1893 2080 2081 2237
0 0 0 0 0 0 0 0 0 1 0 0 0 0 0 0 39 83 174 421 405 323 353 622 691 827 1192 1555 1799 2024 2057 2135
0 0 0 0 0 0 0 0 0 0 0 0 0 0 0 0 0 0 107 373 578 577 616 643 828 747 886 1173 1587 1903 2009 2273
0 0 0 0 0 0 0 0 2 0 0 0 0 0 0 0 21 41 217 437 688 744 880 963 939 1040 1068 1346 1523 1678 1963 2143
0 0 0 0 0 0 0 0 0 0 4 0 0 0 0 0 9 72 389 501 765 804 1064 1196 1224 1514 1566 1461 1609 1771 1872 2197
0 0 0 0 0 0 0 0 0 0 0 0 0 0 0 0 0 75 426 381 817 1017 1327 1631 1578 1704 1841 1866 1825 1852 2046 2152
11 0 0 0 0 0 0 0 0 0 0 0 0 0 0 0 0 62 535 375 939 1211 1438 1780 1823 1999 2109 2121 2002 2114 2231 2352
31 46 22 3 0 0 0 0 0 0 0 0 0 0 0 0 26 68 474 456 785 1157 1387 1795 1898 2134 2139 2126 2099 2156 2332 2395
93 103 84 0 0 0 0 0 0 0 0 0 0 0 0 27 12 87 545 735 820 979 1333 1505 1498 1621 1652 1841 1940 2078 2290 2321
74 130 96 24 67 1 0 0 0 0 0 0 0 0 106 43 39 260 666 969 990 993 1187 1236 1043 1269 1363 1527 1714 1885 2078 2132
136 98 33 300 240 165 174 1 0 0 0 0 0 0 0 107 20 132 527 691 787 710 921 887 822 960 1165 1308 1621 1798 2023 2083
130 147 125 323 147 347 160 4 0 0 0 0 1 146 294 158 252 409 654 826 866 784 637 721 795 987 1082 1257 1369 1671 1966 2125
211 261 158 109 358 377 395 280 311 210 211 215 309 493 595 590 725 844 716 619 528 740 1027 1176 1209 1374 1249 1350 1877 2049 2136 2092
168 134 178 99 144 343 475 545 491 466 413 432 417 480 557 568 548 559 532 516 648 1007 1342 1578 1793 1819 1793 2238 2050 2077 1727 1606
329 190 26 61 85 235 420 491 377 373 325 337 311 311 347 433 548 780 919 817 841 962 1038 1109 1444 1559 1856 1338 1583 1732 1350 1475
169 33 14 14 19 9 47 233 270 284 296 374 676 662 676 860 848 867 965 925 855 951 1367 1370 1603 1674 1618 1486 1369 1369 1301 1349
63 65 20 0 0 0 0 0 1 35 47 92 161 230 589 754 1114 1358 1285 1341 1477 1546 1779 1887 1884 1782 1747 1502 1569 1571 1205 1091
105 19 0 0 0 0 0 0 0 0 0 0 0 0 0 1 18 89 389 928 1825 1616 1731 1668 1706 1661 1622 1615 1438 1190 1009 930

GFSFLT2_con_mlcape_009.txt.gz
CAPE
0 0 0 0 0 0 2 27 20 17 13 11 15 48 43 26 9 23 78 299 231 153 314 613 782 1287 1566 1991 2642 2967 2592 3253
0 0 0 0 0 0 0 2 18 22 20 9 16 4 0 17 1 6 14 196 342 213 254 425 687 1082 1532 1947 2511 2480 2576 2963
0 0 0 0 0 0 0 1 4 20 25 20 21 4 0 0 0 13 23 108 389 332 287 371 495 757 1258 1623 2090 2471 2551 2541
0 0 0 0 0 0 0 0 0 7 27 12 0 0 2 0 0 1 10 71 277 424 382 418 502 509 782 1045 1324 2062 2338 2711
0 0 0 0 0 0 0 0 2 3 0 4 5 4 36 28 0 0 26 38 172 414 437 582 581 619 473 887 860 1308 2064 2403
0 0 0 0 0 0 0 0 0 0 8 31 12 1 0 0 0 0 39 216 160 479 599 791 906 944 765 728 623 1017 1549 1701
0 0 0 0 0 0 0 0 0 0 4 8 21 27 7 0 0 0 0 280 519 727 1094 1394 1371 1503 1349 1055 1121 1200 1714 1900
0 0 0 0 0 0 0 0 0 0 0 1 8 10 10 0 0 0 0 4 638 920 1089 1820 1839 2187 2028 1770 1870 1790 2324 2366
7 7 27 18 0 0 0 0 0 0 0 0 0 3 16 0 0 0 0 0 465 904 1245 1732 1858 2299 2443 2482 2230 2307 2597 3049
16 80 41 0 0 5 4 1 0 0 0 0 0 0 0 0 0 0 0 0 130 819 1412 1944 1949 2031 2256 2557 2790 2966 3098 3082
53 130 56 13 200 267 205 9 0 4 0 0 0 0 0 0 0 0 0 3 311 1071 1511 2176 2141 2380 2620 2609 2851 2913 3001 3104
180 76 86 134 287 365 208 2 0 1 0 0 0 1 0 0 1 197 258 49 778 1274 1651 2239 2308 2331 2434 2443 2554 2670 2851 2911
38 113 65 620 272 420 79 148 777 569 254 78 0 0 117 91 37 271 324 941 1485 1531 2179 2176 2127 1984 2192 2147 2141 2122 2296 2495
34 58 58 510 442 328 842 751 836 796 580 540 11 18 464 514 551 627 827 1238 1395 1623 1851 1827 1843 1908 1900 1909 2132 2344 2463 2557
71 85 814 643 523 715 693 782 805 803 758 607 452 698 867 993 1354 1465 1425 1457 1395 1403 1447 1350 1700 1948 2121 2524 2514 2574 2651 2780
700 580 505 599 603 745 891 884 856 917 994 986 986 1026 1124 1199 1053 888 893 1046 1148 1309 1664 2005 2007 2112 2987 2858 2764 2822 2462 1976
750 441 483 398 483 577 807 856 891 1087 1207 1104 1161 1175 1216 1212 1059 995 981 1042 1171 1440 1686 1901 2166 2408 2132 2423 2562 2268 2313 2017
244 369 203 13 18 180 231 128 337 559 521 962 1154 1154 1321 1206 1090 1065 1025 1131 1370 1397 1691 1984 2145 2141 2130 2116 2198 2019 2016 1765
110 69 0 0 0 0 0 0 0 0 1 18 8 56 160 229 445 674 1110 1078 1181 1330 1701 2021 2111 2171 2051 2088 2136 1977 1457 1339

GFSFLT2_con_mlcape_012.txt.gz
CAPE
0 0 0 0 0 0 0 0 1 1 5 3 42 46 1 0 7 110 364 423 233 543 589 1041 1106 1244 1644 2505 2959 3337 3254 3250
0 0 0 0 0 0 0 0 0 0 0 6 8 116 0 2 9 11 8 457 471 332 810 1003 1238 1283 1710 2102 3041 3562 3481 3324
0 0 0 0 0 0 0 0 0 0 0 24 61 141 75 9 4 0 0 89 410 465 491 948 1344 1395 1705 1960 2867 3449 3524 3349
0 0 0 0 0 0 0 0 0 0 0 0 38 26 85 9 5 2 0 19 124 548 484 722 1035 1274 1627 2021 2511 3129 3339 3233
0 0 0 0 0 0 0 0 0 0 0 0 1 0 8 0 3 5 1 7 142 334 545 634 772 1029 1465 1820 2232 2914 3069 3045
0 0 0 0 0 0 0 0 0 0 0 0 58 8 0 10 2 9 22 13 309 267 753 690 793 975 1288 1663 1941 2403 2814 2854
0 0 0 0 0 0 0 0 0 0 0 0 14 76 7 9 1 0 22 187 109 303 606 865 1017 1077 1124 1285 1472 1654 2285 2646
0 0 0 0 1 0 0 0 0 0 0 0 0 0 10 9 1 0 0 16 311 222 934 1452 1308 1243 1195 1130 1279 1370 1637 2230
0 0 0 1 0 0 0 0 0 0 0 0 0 1 82 180 122 67 21 0 215 724 902 1626 1965 1607 1365 1244 1366 1280 1619 2085
0 0 3 0 0 0 0 0 0 0 0 0 0 0 0 0 6 2 26 0 0 210 1205 1390 2226 2165 2011 1725 1585 1548 2035 2269
2 0 0 3 9 90 21 0 0 0 0 0 0 0 0 0 0 0 0 187 18 0 1106 1509 2120 2139 2603 2346 1951 2561 2268 3416
6 10 0 4 103 310 150 112 289 373 89 32 20 1 0 0 0 0 0 0 18 27 1294 1761 2295 2443 2623 2918 2787 2404 3255 3344
15 7 0 182 251 55 31 29 871 777 686 541 286 208 205 133 174 239 4 11 220 1623 1863 2203 2615 2810 2824 3055 3295 3289 3710 3739
68 68 27 316 52 34 507 709 664 549 497 456 438 315 264 576 331 642 476 393 1209 2081 2500 3028 2867 3064 3258 3219 3466 3552 3611 3669
0 0 4 497 882 845 784 692 742 582 510 415 280 319 356 680 654 105 736 1690 2099 2993 3078 3030 3208 3126 3078 3053 2924 3013 3081 3350
14 91 858 634 492 701 715 877 976 1486 1580 1027 594 749 1206 1388 1690 1810 1907 2014 2369 2398 2545 2636 2749 2905 3077 3058 3166 3176 3269 3076
55 666 859 852 916 945 963 1363 1574 1331 1255 1580 1594 1640 1618 1798 1842 1938 1942 2021 2097 2218 2608 2844 3425 3185 3228 3343 3271 2883 2639 2382
455 267 711 392 522 518 472 568 629 587 494 425 668 617 824 1312 1530 1881 2026 2159 2272 2453 2706 2836 2759 2780 2991 3011 2457 2258 2090 1854
1 0 0 1 3 40 18 1 3 1 2 0 1 1 85 95 959 1320 1566 1879 2001 2372 2544 2512 2542 2431 2502 2745 2638 2325 1853 1771

GFSFLT2_con_mlcape_015.txt.gz
CAPE
0 0 0 0 0 0 0 0 0 0 0 0 2 41 78 44 106 55 16 6 40 89 324 649 737 1235 1449 2167 2004 2098 2210 2190
0 0 0 0 0 0 0 0 0 0 0 0 0 31 63 57 40 15 5 12 60 84 319 620 767 1132 1428 2111 2203 2298 2113 2457
0 0 0 0 0 0 0 0 0 0 0 0 0 77 57 23 30 43 36 47 95 141 358 709 908 1174 1442 1894 2398 2463 2567 2379
0 0 0 0 0 0 0 0 0 0 0 0 0 36 116 61 38 31 3 51 137 279 380 877 1042 1076 1408 2171 2388 2579 2710 2716
0 0 0 0 0 0 0 0 0 0 0 0 0 0 0 27 27 15 7 134 415 285 629 976 1132 1098 1464 1996 2580 2831 3013 3007
0 0 0 0 0 0 0 0 0 0 0 0 0 0 0 55 16 0 25 0 167 406 609 943 1232 1228 1359 1829 2542 2917 3199 3130
0 0 0 0 0 0 0 0 0 0 0 0 0 0 39 32 30 6 1 11 45 507 499 928 1209 1313 1413 1706 1939 2769 2982 3116
0 0 0 0 0 0 0 0 0 0 0 0 0 0 10 79 65 5 0 27 166 419 575 608 886 1128 1419 1611 1916 2246 2777 2892
0 0 0 0 0 0 0 0 0 0 0 0 0 0 0 7 165 25 7 170 374 417 669 700 758 949 1257 1550 1718 1997 2354 2734
0 0 0 0 0 0 0 0 0 0 0 0 0 0 0 0 0 0 1 45 84 169 980 998 980 943 1145 1397 1725 1825 1897 2422
0 0 0 0 0 0 0 0 0 0 0 0 0 0 0 0 0 0 0 10 0 422 429 1774 1442 1124 1126 1234 1519 1583 1648 1851
0 0 0 0 0 152 123 0 371 169 105 21 9 0 0 21 57 0 0 0 0 0 229 632 1763 1729 1337 1261 1377 1343 1418 1728
1 0 0 0 1 144 98 170 629 470 355 282 113 148 149 90 103 498 200 0 0 0 373 818 1634 2148 1889 1590 1363 1733 1411 2607
44 13 20 237 191 160 309 586 394 260 195 127 138 90 107 7 4 308 362 881 38 117 236 860 1917 2349 2538 2195 2101 2133 3272 3014
4 119 393 279 255 41 29 515 639 819 1109 661 621 618 379 499 256 173 1007 1528 2320 1589 1610 2280 2467 2666 2920 3467 3301 3149 3380 3837
0 1 12 0 0 345 1250 919 1225 1307 1185 994 888 1093 1672 1584 1665 1716 1824 1953 2739 3097 3204 3179 3242 3292 3356 3466 3497 3532 3481 3352
21 40 393 630 660 823 588 149 336 711 902 1034 1044 1061 1182 1502 1917 2210 2436 2542 2661 2913 3118 3259 3345 3309 3284 3359 3308 3197 2888 2587
42 3 43 0 42 176 131 165 66 178 225 178 340 541 585 581 518 527 714 2278 2850 3048 3112 3171 3159 3110 2970 2821 2783 2489 2179 1995
0 0 0 0 0 0 0 0 0 0 0 0 0 34 2 101 0 0 3 30 2466 2782 2870 2919 2875 2793 2557 2334 2302 2247 2072 1789

GFSFLT2_con_mlcape_018.txt.gz
CAPE
0 0 0 0 0 0 0 0 0 0 0 0 0 0 0 9 3 0 4 0 0 9 86 183 258 635 844 994 952 1141 1155 1186
0 0 0 0 0 0 0 0 0 0 0 0 0 0 0 15 12 13 5 5 2 0 110 266 241 671 962 1181 1103 1243 1390 1292
0 0 0 0 0 0 0 0 0 0 0 0 0 0 0 0 20 59 75 43 26 37 67 196 364 713 1141 1285 1291 1464 1646 1620
0 0 0 0 0 0 0 0 0 0 0 0 0 0 0 1 53 91 106 53 39 61 60 163 490 747 1097 1520 1479 1534 1715 1816
0 0 0 0 0 0 0 0 0 0 0 0 0 0 0 6 28 70 84 22 15 13 54 211 512 713 1159 1484 1703 1823 1882 1936
0 0 0 0 0 0 0 0 0 0 0 0 0 0 0 0 18 23 23 11 5 45 73 292 580 728 1143 1334 1942 1999 2197 2038
0 0 0 0 0 0 0 0 0 0 0 0 0 0 0 0 1 94 22 0 4 9 148 383 713 838 1112 1427 1810 2124 2261 2376
0 0 0 0 0 0 0 0 0 0 0 0 0 0 0 0 0 0 23 21 0 14 164 290 705 917 1032 1346 1990 2237 2395 2402
0 0 0 0 0 0 0 0 0 0 0 0 0 0 0 0 0 0 0 0 0 42 237 457 766 948 1045 1407 1902 2400 2408 2655
0 0 0 0 0 0 0 0 0 0 0 0 0 0 0 0 0 0 0 0 17 118 323 611 820 1048 1104 1336 1733 2294 2493 2641
0 0 0 0 0 0 0 0 0 0 0 0 0 0 0 0 0 0 0 0 0 396 428 530 783 1018 1171 1328 1690 1909 2353 2513
0 0 0 0 0 0 0 0 1 0 0 0 0 0 0 0 0 0 0 0 0 27 328 686 708 761 1020 1241 1531 1747 1959 2261
0 0 0 0 0 19 0 0 176 23 0 0 0 0 0 21 0 54 0 0 0 0 87 944 889 745 768 969 1212 1491 1829 1967
3 9 0 0 4 0 2 388 65 9 11 0 0 0 0 3 0 108 196 46 0 0 0 38 632 1057 915 891 962 1295 1563 1630
0 0 182 12 542 424 848 743 684 400 403 290 227 651 1262 1122 988 325 759 997 791 19 0 0 262 695 852 1029 1089 1258 1289 1574
0 12 233 11 468 560 543 563 403 342 367 547 632 1098 1241 1285 1316 1468 1738 1985 2458 2341 663 561 707 1594 1137 1341 1538 1653 1724 2324
31 0 79 73 25 101 26 0 95 182 296 374 656 920 899 743 709 785 781 563 622 1754 2716 2521 2096 2413 2666 2269 2488 2456 2629 2538
15 6 2 3 0 0 0 0 0 3 52 9 18 119 47 37 0 0 2 14 82 0 266 606 311 2802 3068 2792 2562 2456 2453 2123
0 2 1 0 0 0 0 0 0 0 0 0 0 0 0 0 0 12 37 0 0 0 0 3 0 0 2432 2213 2378 2415 1993 1320

GFSFLT2_con_mlcape_021.txt.gz
CAPE
0 0 0 0 0 0 0 0 0 0 0 0 0 0 0 0 0 0 0 0 9 26 13 72 108 228 454 439 539 971 973 945
0 0 0 0 0 0 0 0 0 0 0 0 0 0 0 0 0 0 0 1 5 5 28 43 100 112 398 493 458 646 999 997
0 0 0 0 0 0 0 0 0 0 0 0 0 0 0 0 0 0 0 0 0 18 18 34 59 70 292 557 559 540 851 987
0 0 0 0 0 0 0 0 0 0 0 0 0 0 0 0 0 0 0 0 4 33 31 38 76 98 336 549 670 670 809 923
0 0 0 0 0 0 0 0 0 0 0 0 0 0 0 0 0 0 0 0 0 1 0 7 42 157 429 637 777 867 922 1060
0 0 0 0 0 0 0 0 0 0 0 0 0 0 0 0 0 0 0 0 0 0 1 13 13 159 429 769 913 1036 1166 1255
0 0 0 0 0 0 0 0 0 0 0 0 0 0 0 0 0 0 0 0 0 0 0 0 7 188 448 767 1116 1194 1274 1451
0 0 0 0 0 0 0 0 0 0 0 0 0 0 0 0 0 0 0 0 0 16 41 4 21 157 378 762 1120 1423 1441 1506
0 0 0 0 0 0 0 0 0 0 0 0 0 0 0 0 0 0 0 0 0 0 6 14 24 221 402 700 1076 1582 1613 1707
0 0 0 0 0 0 0 0 0 0 0 0 0 0 0 0 0 0 0 0 0 0 0 1 109 289 511 789 1143 1473 1737 1890
0 0 0 0 0 0 0 0 0 0 0 0 0 0 0 0 0 0 0 0 0 0 0 32 156 340 734 927 1107 1606 1802 1959
0 0 0 0 0 0 0 0 0 0 0 0 0 0 0 0 0 0 0 0 0 0 0 28 216 555 854 982 1226 1495 1843 2007
0 0 0 0 0 0 0 0 0 0 0 0 0 0 0 0 0 0 0 0 0 0 0 147 419 796 979 1070 1162 1394 1835 2110
0 0 0 2 21 57 21 0 0 0 0 0 0 0 0 4 0 94 570 861 740 0 0 263 383 697 898 1074 1112 1313 1562 1883
0 0 33 54 49 85 89 150 56 17 28 139 263 288 413 244 134 53 369 1139 1651 1454 1147 137 20 680 728 876 1125 1308 1404 1578
12 57 35 91 68 58 44 101 116 101 309 334 245 377 339 535 461 337 298 418 1246 1237 805 780 1270 1001 873 862 852 1111 1328 1408
14 46 59 67 0 0 0 3 37 19 109 124 84 18 5 20 29 155 169 57 161 878 1553 1572 807 915 832 1127 1187 936 1113 1296
45 0 3 0 0 0 0 0 0 0 0 0 0 4 2 28 0 2 7 0 0 0 0 0 16 25 345 990 2021 1302 1072 1358
51 0 0 0 0 0 0 0 0 0 0 0 0 0 0 0 0 5 16 0 0 0 0 0 9 14 0 1 1747 2468 2032 1696

GFSFLT2_con_mlcape_024.txt.gz
CAPE
0 0 0 0 0 0 0 0 0 0 0 0 0 0 0 0 0 0 0 0 42 177 126 56 101 140 231 342 365 401 417 360
0 0 0 0 0 0 0 0 0 0 0 0 0 0 0 0 0 0 0 0 0 4 28 37 50 119 206 322 335 410 494 491
0 0 0 0 0 0 0 0 0 0 0 0 0 0 0 0 0 0 0 0 0 0 3 4 11 46 162 288 356 388 597 628
0 0 0 0 0 0 0 0 0 0 0 0 0 0 0 0 0 0 0 0 0 0 0 5 2 13 63 253 336 363 650 793
0 0 0 0 0 0 0 0 0 0 0 0 0 0 0 0 0 0 0 0 0 0 0 0 0 2 29 149 350 397 454 832
0 0 0 0 0 0 0 0 0 0 0 0 0 0 0 0 0 0 0 0 0 0 0 0 0 7 18 121 303 497 519 675
0 0 0 0 0 0 0 0 0 0 0 0 0 0 0 0 0 0 0 0 0 0 0 0 0 4 37 155 287 522 617 679
0 0 0 0 0 0 0 0 0 0 0 0 0 0 0 0 0 0 0 0 0 0 0 0 0 46 121 214 398 569 692 723
0 0 0 0 0 0 0 0 0 0 0 0 0 0 0 0 0 0 0 0 0 0 0 0 26 110 186 301 556 739 797 924
0 0 0 0 0 0 0 0 0 0 0 0 0 0 0 0 0 0 0 0 0 0 0 0 26 35 173 338 623 801 987 1047
0 0 0 0 0 0 0 0 0 0 0 0 0 0 0 0 0 0 0 0 0 0 0 0 0 23 146 340 581 842 1107 1202
0 0 0 0 0 0 0 0 0 0 0 0 0 0 0 0 0 0 0 0 0 0 0 0 0 0 129 352 593 696 1113 1327
0 0 0 0 0 0 0 0 0 0 0 0 0 0 0 0 0 0 0 0 0 0 0 0 0 0 53 227 395 651 1063 1528
0 0 0 0 0 0 0 0 0 0 0 0 0 0 0 0 11 285 491 783 279 0 0 0 0 66 215 340 501 821 1163 1497
0 0 0 0 10 11 0 0 0 0 0 0 0 0 0 0 17 252 844 1238 1374 906 702 238 0 247 407 586 702 876 1100 1527
2 0 0 33 84 25 19 0 2 2 32 39 15 9 0 0 2 5 0 2 185 437 606 458 696 1201 982 977 1051 699 948 1287
0 0 2 7 0 46 74 0 1 5 5 0 20 12 13 22 6 0 0 0 0 0 0 0 0 0 0 55 1226 1961 1192 919
0 0 30 35 0 14 111 0 0 3 24 21 5 18 3 0 0 0 0 0 0 0 0 0 0 0 0 0 0 464 1135 1245
0 0 54 32 0 0 45 0 0 0 0 1 23 28 4 6 0 0 0 0 0 0 0 0 0 0 0 0 0 224 505 992

GFSFLT2_con_mlcape_027.txt.gz
CAPE
0 0 0 0 0 0 0 0 0 0 0 0 0 0 0 0 0 0 219 446 480 649 697 626 679 549 527 490 605 657 625 631
0 0 0 0 0 0 0 0 0 0 0 0 0 0 0 0 0 0 0 99 307 590 607 593 536 608 476 543 590 724 737 720
0 0 0 0 0 0 0 0 0 0 0 0 0 0 0 0 0 0 0 0 0 251 584 638 500 504 526 575 672 771 809 821
0 0 0 0 0 0 0 0 0 0 0 0 0 0 0 0 0 0 0 0 0 29 187 362 523 441 521 597 729 790 866 932
0 0 0 0 0 0 0 0 0 0 0 0 0 0 0 0 0 0 0 0 0 4 30 136 347 458 424 538 626 797 958 1002
0 0 0 0 0 0 0 0 0 0 0 0 0 0 0 0 0 0 0 0 0 0 1 23 135 302 397 482 634 765 904 1015
0 0 0 0 0 0 0 0 0 0 0 0 0 0 0 0 0 0 0 0 0 0 0 1 72 229 267 445 605 736 925 974
0 0 0 0 0 0 0 0 0 0 0 0 0 0 0 0 0 0 0 0 0 0 0 0 24 149 252 343 489 732 826 808
0 0 0 0 0 0 0 0 0 0 0 0 0 0 0 0 0 0 0 0 0 0 0 0 0 96 186 297 490 660 766 879
0 0 0 0 0 0 0 0 0 0 0 0 0 0 0 0 0 0 0 0 0 0 0 0 0 23 250 421 471 673 842 1046
0 0 0 0 0 0 0 0 0 0 0 0 0 0 0 0 0 0 0 0 0 0 0 0 0 0 190 422 607 765 823 1034
0 0 0 0 0 0 0 0 0 0 0 0 0 0 0 0 0 0 0 0 0 0 0 0 0 9 175 366 631 711 874 962
0 0 0 0 0 25 0 0 0 0 0 0 0 0 0 0 0 0 0 0 0 0 0 0 0 0 0 255 511 702 1186 1545
0 0 0 0 0 0 0 0 0 0 0 0 0 0 0 0 0 66 287 8 0 0 0 0 12 3 3 163 738 1107 1351 1499
0 0 0 0 0 10 84 0 0 0 0 0 0 27 0 0 194 807 1318 879 388 4 0 3 254 623 638 718 852 1132 1244 1529
0 0 0 0 0 0 20 69 55 18 2 1 118 208 0 0 273 701 1009 1073 707 617 718 833 901 773 844 1166 1281 1145 1310 1494
1 0 0 0 0 0 0 55 47 39 11 14 12 0 0 0 2 0 0 0 19 33 30 10 20 11 4 96 1427 2166 1642 1504
0 0 0 0 0 0 0 0 57 19 36 17 18 6 0 1 6 0 0 0 0 0 0 0 0 0 0 1 0 157 687 1184
0 0 0 7 0 30 46 57 34 12 7 4 9 19 14 14 0 0 0 0 0 78 258 377 310 220 254 233 105 142 198 618

GFSFLT2_con_mlcape_030.txt.gz
CAPE
0 0 0 0 0 0 0 0 0 0 0 0 0 0 0 0 0 0 101 672 835 889 1044 1149 1190 1211 1272 1333 1593 1670 1584 1897
0 0 0 0 0 0 0 0 0 0 0 0 0 0 0 0 0 0 28 569 772 903 968 1110 1270 1316 1378 1495 1437 1593 1688 1791
0 0 0 0 0 0 0 0 0 0 0 0 0 0 0 0 0 0 7 358 499 614 802 986 1212 1383 1467 1559 1588 1622 1725 1855
0 0 0 0 0 0 0 0 0 0 0 0 0 0 0 0 0 0 0 0 36 249 514 738 1021 1212 1399 1442 1525 1616 1684 1893
0 0 0 0 0 0 0 0 0 0 0 0 0 0 0 0 0 0 0 0 17 21 88 486 820 1065 1068 1372 1317 1398 1756 1797
0 0 0 0 0 0 0 0 0 0 0 0 0 0 0 0 0 0 0 0 0 0 21 163 519 1042 1265 990 1164 1196 1444 1648
0 0 0 0 0 0 0 0 0 0 0 0 0 0 0 0 0 0 0 0 0 33 101 363 490 900 1475 1106 1037 1115 1449 1578
0 0 0 0 0 0 0 0 0 0 0 0 0 0 0 0 0 0 0 0 0 0 0 181 592 975 1013 1414 1144 1137 1504 1688
0 0 0 0 0 0 0 0 0 0 0 0 0 0 0 0 0 0 0 0 0 0 0 140 454 712 885 1197 1196 1273 1498 1857
0 0 0 0 0 0 0 0 0 0 0 0 0 0 0 0 0 0 0 0 0 0 0 2 92 8 574 816 1295 1413 1671 1829
0 0 0 0 0 0 0 0 0 0 0 0 0 0 0 0 0 0 0 0 0 0 0 0 0 0 32 807 1100 1460 1692 1854
0 0 0 0 0 0 0 0 0 0 0 0 0 0 0 0 0 0 0 0 0 0 0 0 0 5 209 640 965 1507 1622 1786
0 0 0 0 0 3 0 15 0 0 0 0 1 5 20 0 0 0 0 0 0 0 0 0 97 244 298 669 910 1492 1751 1814
0 0 0 0 0 0 0 0 0 0 0 0 0 0 100 276 212 11 0 279 728 91 0 0 231 88 178 448 1062 1727 1884 2005
0 0 0 0 0 0 0 0 0 0 0 0 0 1 114 470 495 0 90 738 1245 0 14 895 1282 896 569 1041 1520 1686 2002 2223
0 0 0 0 0 0 0 0 0 0 0 0 0 34 452 709 445 692 1307 1995 1782 1072 869 1433 1974 2122 2302 2112 2071 2051 2090 2260
22 14 3 0 0 0 0 0 0 0 0 0 0 108 672 570 587 1106 1357 1098 1237 1512 1513 1440 1554 1623 1849 2418 3053 2424 2581 2704
2 3 14 7 7 0 0 0 0 0 0 0 22 61 167 666 869 787 867 727 679 680 706 756 694 691 701 725 866 1551 2070 2056
1 2 14 16 4 0 16 0 0 0 1 41 32 5 36 126 65 107 534 691 894 977 1072 1051 945 762 152 285 1068 1088 1142 1161

GFSFLT2_con_mlcape_033.txt.gz
CAPE
0 0 0 0 0 0 0 0 0 0 0 0 0 0 0 0 0 5 42 331 613 939 1138 1237 1024 1200 1270 1556 2158 2547 2306 2522
0 0 0 0 0 0 0 0 0 0 0 0 0 0 0 0 0 0 1 163 539 831 1091 1341 1261 1303 1474 1674 2178 2347 2161 2415
0 0 0 0 0 0 0 0 0 0 0 0 0 0 0 0 0 0 0 45 403 825 1019 1263 1358 1338 1516 1749 2128 2442 2360 2378
0 0 0 0 0 0 0 0 0 0 0 0 0 0 0 0 0 0 0 7 335 807 819 955 1267 1400 1560 1712 1787 2452 2521 2457
0 0 0 0 0 0 0 0 0 0 0 0 0 0 0 0 0 0 0 13 340 583 663 839 1045 1392 1524 1829 1694 1805 2221 2437
0 0 0 0 0 0 0 0 0 0 0 0 0 0 0 0 0 0 0 0 66 108 183 616 859 1463 1758 1688 1729 1791 1926 2059
0 0 0 0 0 0 0 0 0 0 0 0 0 0 0 0 0 0 0 0 0 5 98 254 823 1415 1788 1582 1802 1796 2065 2171
0 0 0 0 0 0 0 0 0 0 0 0 0 0 0 0 0 0 0 0 0 0 0 176 367 1223 1568 1906 1715 1790 2171 2203
0 0 0 0 0 0 0 0 0 0 0 0 0 0 0 0 0 0 0 0 0 0 0 60 301 698 1125 1878 2055 1714 1986 2422
0 0 0 0 0 0 0 0 0 0 0 0 0 0 0 0 0 0 0 0 0 0 0 0 0 95 865 1032 2189 2193 2101 2239
0 0 0 0 0 0 0 0 0 0 0 0 0 0 0 0 0 0 0 0 0 0 0 0 0 0 114 963 1481 2260 2421 2410
0 0 0 0 0 0 0 0 0 0 0 0 0 0 0 14 10 5 0 0 0 0 0 0 0 0 0 50 758 2050 2182 2704
0 0 0 0 3 2 0 92 25 1 0 1 0 31 145 58 59 262 337 241 42 21 0 0 0 0 122 154 312 1324 2194 2640
0 0 0 0 0 1 5 7 0 5 11 25 10 4 3 0 134 258 535 431 171 144 641 805 30 118 801 907 1080 1782 1992 2480
0 0 0 0 0 0 0 0 0 0 0 0 0 0 0 6 315 674 748 420 0 84 1127 250 351 451 890 1433 2237 2236 2611 2906
0 0 0 0 0 0 0 0 0 0 0 0 0 0 0 24 591 801 806 1085 1610 1634 1320 711 1713 2090 1802 1816 2268 2392 2920 3131
2 0 0 0 0 0 0 0 0 0 0 0 0 0 0 137 1026 805 1307 1957 1719 2144 2314 2483 2831 3064 3119 3186 2801 2731 2787 2834
16 13 1 0 2 0 0 0 0 0 0 0 0 0 9 25 844 1485 1361 1427 1600 1694 1748 1622 1564 1584 1668 1721 2924 3334 3114 3105
3 4 3 0 7 9 3 0 0 0 0 0 0 0 58 10 835 963 1159 1292 1523 1713 1651 1585 1472 874 920 1518 1724 1896 2098 2063

GFSFLT2_con_mlcape_036.txt.gz
CAPE
0 0 0 0 0 0 0 0 0 0 0 0 0 0 0 4 48 68 107 279 881 1212 1223 924 707 900 1126 1670 2234 2408 2109 2608
0 0 0 0 0 0 0 0 0 0 0 0 0 0 0 0 1 25 32 151 687 1105 1390 1228 925 913 1078 1625 2115 2424 2635 2422
0 0 0 0 0 0 0 0 0 0 0 0 0 0 0 0 0 8 19 138 536 1154 1331 1530 1273 1159 1156 1363 2106 2544 2617 2610
0 0 0 0 0 0 0 0 0 0 2 0 0 0 0 0 0 0 8 277 450 956 1292 1603 1661 1443 1463 1538 1866 2466 2913 2819
0 0 0 0 0 0 0 0 0 0 0 0 0 0 0 0 0 0 0 14 375 832 1117 1558 1725 1740 1767 1730 1748 2414 2841 2850
0 0 0 0 0 0 0 0 0 0 0 0 0 0 0 0 0 0 0 0 330 733 1028 1413 1657 1848 1880 1961 1959 2024 2637 2894
0 0 11 0 0 0 0 0 0 0 0 0 0 0 0 0 0 0 37 188 375 600 1245 1156 1459 1793 1967 2014 2087 2096 2160 2736
0 0 0 0 0 0 0 0 0 0 0 0 0 0 0 0 0 0 0 0 0 23 17 528 1497 1962 1860 2040 2249 2195 2165 2387
0 0 0 0 0 0 0 0 0 0 0 0 0 0 0 0 0 0 0 0 0 0 0 19 227 1826 2304 2224 2281 2439 2262 2530
0 0 0 0 0 0 1 0 0 0 0 0 1 0 0 0 0 0 0 0 0 0 0 0 40 244 1326 2388 2285 2176 2560 2558
0 0 0 0 0 0 0 0 2 0 0 1 0 0 0 0 0 0 0 0 0 0 0 0 52 151 548 881 2210 2465 2346 2526
0 0 0 0 0 0 0 0 7 0 0 0 0 0 185 320 100 192 411 560 551 298 173 0 7 0 1185 1074 1727 2134 2246 2311
0 0 0 0 0 0 0 92 55 9 8 6 37 364 296 82 51 202 419 528 617 458 313 399 69 46 100 834 1358 1890 2386 2726
0 0 0 0 0 0 9 0 0 0 0 0 0 0 3 1 59 173 539 904 647 532 377 356 1110 418 80 398 406 1027 1604 2784
0 0 0 0 0 0 0 0 0 0 0 0 0 0 0 0 81 568 1024 1131 955 586 102 118 1102 684 278 1331 2130 1762 2254 2645
0 0 0 0 0 0 0 0 0 0 0 0 0 0 0 0 0 440 1355 1370 2431 2252 2174 1813 920 1774 2309 1942 1981 2659 2965 3170
0 0 0 0 0 0 0 0 0 0 0 0 0 0 0 0 0 45 391 1949 1847 2340 2891 2913 3427 3387 3334 3455 3265 2891 2861 3690
1 0 0 0 0 0 0 0 0 0 0 0 0 0 0 0 22 55 725 1606 1819 1852 2172 2214 2115 2177 2322 2344 3189 3497 3264 3337
0 0 0 0 0 0 0 0 0 0 0 0 0 0 0 0 90 106 589 1485 1494 1717 1701 1668 1700 1386 1281 1993 2435 2736 2973 3261

GFSFLT2_con_mlcape_039.txt.gz
CAPE
0 0 0 0 0 0 0 0 0 0 0 0 0 0 0 0 48 468 609 643 667 496 474 353 402 792 952 1328 1123 1238 1488 1512
0 0 0 0 0 0 0 0 0 0 0 0 0 0 0 0 0 140 524 696 916 660 575 437 386 709 1077 1546 1484 1443 1511 1706
0 0 0 0 0 0 0 0 0 0 0 0 0 0 0 0 0 34 498 706 1072 940 755 607 464 718 948 1322 1770 1791 1724 1529
0 0 0 0 0 0 0 0 0 0 0 0 0 0 0 0 0 0 275 356 1161 1182 1026 863 648 734 914 1077 1632 1761 1862 1730
0 0 0 0 0 0 0 0 0 0 0 0 0 0 0 0 0 0 23 334 1150 1355 1282 1110 861 741 895 1057 1392 1831 2056 2123
0 0 0 0 0 0 0 0 0 0 0 0 0 0 0 0 0 0 37 395 1115 1278 1429 1374 1133 954 936 993 1341 1877 2076 2222
0 0 0 0 0 0 0 0 0 0 0 0 0 0 0 0 0 0 5 326 942 1185 1307 1573 1462 1236 1189 1115 1245 1537 2160 2336
0 0 0 0 0 0 0 0 0 0 0 0 0 4 0 0 0 0 26 202 526 975 1263 1538 1690 1602 1464 1457 1417 1466 1977 2229
0 0 0 0 0 1 0 0 0 0 0 0 0 1 0 0 0 0 0 0 0 0 500 1473 1708 1800 1788 1809 1680 1717 1715 2160
0 0 0 0 0 0 0 0 0 0 2 0 27 67 10 0 0 0 0 0 0 0 0 0 551 1932 1845 1902 2094 1959 1937 1955
0 0 0 0 0 0 11 9 3 106 110 23 23 2 31 82 150 191 143 94 127 147 37 0 0 6 2049 2060 2182 2325 2222 2217
0 0 0 0 0 0 0 3 0 28 250 21 4 5 95 43 104 286 397 430 240 119 147 143 316 270 1023 2195 2328 2347 2469 2613
0 0 0 0 0 0 0 0 0 0 0 0 0 0 0 1 121 635 904 863 815 440 259 303 277 299 863 1292 1976 2035 2272 2437
0 0 0 0 0 0 0 0 0 0 0 0 0 0 0 0 27 408 615 1246 1755 1220 743 273 139 1088 644 183 1415 2028 2254 2278
0 0 0 0 0 0 0 0 0 0 0 0 0 0 0 0 0 16 137 662 1769 2000 2238 2001 983 858 844 1446 1601 2103 1825 2058
0 0 0 0 0 0 0 0 0 0 0 0 0 0 0 0 0 14 0 110 1321 1866 2197 3103 2829 2325 2236 2423 2221 1504 2149 3013
0 0 0 0 0 0 0 0 0 0 0 0 0 0 0 0 0 50 13 0 141 1310 1749 2162 2367 2545 2509 2529 2799 2981 1624 2769
0 0 0 0 0 0 0 0 0 0 0 0 0 0 0 0 0 0 10 0 0 925 1392 1438 2016 1896 1696 1736 2324 2971 3394 3133
0 0 0 0 0 0 0 0 0 0 0 0 0 0 0 0 0 0 0 0 0 347 891 1428 1367 1368 1125 1301 1944 2416 2740 3346

GFSFLT2_con_mlcape_042.txt.gz
CAPE
0 0 0 0 0 0 0 0 0 0 0 0 0 0 0 0 122 89 295 429 332 417 302 254 384 553 520 379 345 620 622 608
0 0 0 0 0 0 0 0 0 0 0 0 0 0 0 0 0 21 545 528 392 366 374 347 372 525 636 559 426 480 814 671
0 0 0 0 0 0 0 0 0 0 0 0 0 0 0 0 0 117 550 567 450 363 467 404 363 588 745 739 643 667 780 948
0 0 0 0 0 0 0 0 0 0 0 0 0 0 0 0 0 94 541 646 561 475 544 468 414 628 678 977 879 861 888 1013
0 0 0 0 0 0 0 0 0 0 0 0 0 0 0 0 0 0 220 718 628 570 563 564 430 520 856 968 1117 1060 1120 1194
0 0 0 0 0 0 0 0 0 0 0 0 0 0 0 0 0 0 0 605 801 753 667 639 474 491 785 993 1416 1419 1448 1442
0 0 0 0 0 0 0 0 0 0 0 0 0 0 0 0 0 0 8 594 974 911 833 778 620 497 735 908 1229 1555 1615 1646
0 0 0 0 0 0 0 0 0 0 0 0 0 0 0 0 0 0 0 536 1058 1034 1005 961 816 667 744 865 1072 1434 1590 1646
0 0 0 0 0 0 0 0 0 0 0 0 2 0 1 0 0 0 18 558 1062 1132 1122 1141 1041 877 796 894 981 1406 1550 1693
0 0 0 0 0 0 0 0 0 0 0 25 106 170 152 141 27 0 0 84 505 918 1161 1323 1311 1132 984 949 1027 1135 1486 1789
0 0 0 0 0 0 0 0 0 0 111 231 179 50 182 309 383 263 92 21 82 149 347 996 1605 1649 1464 1355 1355 1315 1366 1477
0 0 0 0 0 0 0 0 0 0 0 51 43 23 54 200 371 642 1021 571 149 114 143 208 226 1049 1760 1820 1806 1712 1650 1692
0 0 0 0 0 0 0 0 0 0 0 0 0 0 0 1 173 336 731 1382 1551 908 446 234 354 266 776 1795 1997 2053 2000 1837
0 0 0 0 0 0 0 0 0 0 0 0 0 0 0 0 0 42 373 1085 1699 2177 1439 1019 330 740 409 1022 1963 2114 2100 2270
0 0 0 0 2 0 0 0 0 0 0 0 0 0 0 0 0 0 0 105 1033 1750 2428 2467 2010 1902 1799 1980 1805 2016 2309 2450
0 0 0 0 0 0 0 0 0 0 0 0 0 0 0 0 0 0 0 0 243 1191 1381 2021 2081 2284 2247 2191 2254 2258 1145 2240
0 0 0 0 0 0 0 0 0 0 0 0 0 0 0 0 0 0 0 0 0 407 818 1378 1766 1608 1447 1315 1423 2331 2541 1979
1 0 0 0 0 0 0 0 0 0 0 0 0 0 0 0 0 0 0 0 0 4 363 775 1381 1151 1069 965 1217 1495 2421 2710
2 2 0 0 0 0 0 0 0 0 0 0 0 0 0 0 0 0 0 0 0 67 318 805 1089 1049 1052 1165 1586 1631 1615 1677

GFSFLT2_con_mlcape_045.txt.gz
CAPE
0 0 0 0 0 0 0 0 0 0 0 0 0 0 0 1 121 132 84 110 194 500 316 280 381 315 222 112 137 96 72 94
0 0 0 0 0 0 0 0 0 0 0 0 0 0 0 0 45 137 127 66 100 331 329 181 359 378 311 200 245 251 174 173
0 0 0 0 0 0 0 0 0 0 0 0 0 0 0 0 0 3 131 122 68 144 348 247 338 471 348 300 253 306 398 322
0 0 0 0 0 0 0 0 0 0 0 0 0 0 0 0 0 0 34 102 127 153 308 326 251 428 469 330 270 247 433 449
0 0 0 0 0 0 0 0 0 0 0 0 0 0 0 0 0 0 0 14 149 270 283 378 330 246 464 490 374 265 331 546
0 0 0 0 0 0 0 0 0 0 0 0 0 0 0 0 0 0 0 0 78 359 353 405 376 266 398 567 530 457 456 518
0 0 0 0 0 0 0 0 0 0 0 0 0 0 0 0 0 0 0 0 67 340 390 428 382 297 445 548 738 687 693 726
0 0 0 0 0 0 0 0 0 0 0 0 0 0 0 0 0 0 0 56 174 356 469 465 434 391 414 673 879 982 912 884
0 0 0 0 0 0 0 0 0 0 0 0 0 0 28 8 0 0 0 51 309 404 500 504 494 428 496 753 964 1230 1220 1192
0 0 0 0 0 0 0 0 0 0 0 34 104 212 154 84 62 5 0 82 250 551 630 567 549 488 492 733 938 1315 1474 1521
0 0 0 0 0 0 0 0 0 0 0 198 295 205 322 7 129 237 160 125 433 755 753 716 727 639 616 796 966 1134 1353 1541
0 0 3 0 0 0 0 0 0 0 0 0 26 53 53 0 16 435 749 622 473 673 924 1077 1003 848 805 886 964 1108 1306 1503
1 1 0 0 0 0 0 0 0 0 0 0 0 0 0 0 0 90 781 1275 1160 670 724 815 1033 1250 1234 1192 1229 1248 1134 1190
0 0 1 0 0 0 0 0 0 0 0 0 0 0 0 0 0 11 512 1042 1305 1217 1091 449 326 1352 1495 1561 1478 1533 1501 1395
0 0 0 0 0 0 0 0 0 0 0 0 0 0 0 0 0 0 0 239 924 1481 1804 1916 1884 1761 1909 2210 2242 2109 1951 1976
0 0 0 0 0 0 0 0 0 0 0 0 0 0 0 0 0 0 0 0 121 960 1461 1556 1438 1403 1330 1479 1976 2112 1977 2309
0 0 0 0 0 0 0 0 0 0 0 0 0 0 0 0 0 0 0 0 0 154 611 1123 1024 882 909 1108 1278 1668 1994 2071
0 0 1 0 0 0 0 0 0 0 0 0 0 0 0 0 0 0 0 0 0 1 216 640 865 852 936 1077 1224 1166 1379 1737
5 1 1 0 0 0 0 0 0 0 0 0 0 0 0 0 0 0 0 0 0 0 19 478 799 848 776 947 948 993 909 1088

GFSFLT2_con_mlcape_048.txt.gz
CAPE
0 0 0 0 0 0 0 0 0 0 0 0 0 0 0 5 62 136 190 189 338 339 224 161 135 92 58 37 0 0 0 0
0 0 0 0 0 0 0 0 0 0 0 0 0 0 0 0 2 58 160 103 123 376 333 261 190 155 77 48 30 19 0 0
0 0 0 0 0 0 0 0 0 0 0 0 0 0 0 0 0 6 123 129 134 282 340 286 252 235 129 66 52 33 26 32
0 0 0 0 0 0 0 0 0 0 0 0 0 0 0 0 0 0 41 107 120 121 181 321 237 268 280 130 66 76 89 93
0 0 0 0 0 0 0 0 0 0 0 0 0 0 0 0 0 0 2 70 134 121 88 255 197 203 300 254 190 133 173 195
0 0 0 0 0 0 0 0 0 0 0 0 0 0 0 0 0 0 0 0 7 70 74 133 248 212 325 323 276 217 248 368
0 0 0 0 0 0 0 0 0 0 0 0 0 0 0 0 0 0 0 0 0 2 73 114 287 208 370 397 332 280 285 437
0 0 0 0 0 0 0 0 0 0 0 0 0 0 0 0 0 0 0 0 0 0 37 164 288 316 336 459 465 369 331 400
0 0 0 0 0 0 0 0 0 0 0 0 0 0 0 0 0 0 0 0 0 0 13 198 308 342 334 471 566 536 475 430
0 0 0 0 0 0 0 0 0 0 0 37 125 98 8 0 0 0 52 0 0 24 141 240 324 334 306 461 666 653 616 656
0 0 0 0 0 0 0 0 0 0 0 0 0 3 232 0 0 18 232 120 0 150 234 273 361 339 355 578 713 851 843 876
0 0 0 0 0 0 0 0 0 0 0 0 27 82 3 0 0 51 236 697 208 328 358 364 378 358 464 654 825 1033 1056 1134
0 0 2 1 0 0 0 0 0 0 0 0 0 0 0 0 0 4 118 591 675 500 577 547 500 464 561 662 847 981 1197 1370
1 0 1 0 0 0 0 0 0 0 0 0 0 0 0 0 0 2 121 366 663 1025 929 543 566 621 674 741 746 835 1035 1234
0 0 1 0 0 0 0 0 0 0 0 0 0 0 0 0 0 0 0 146 461 927 992 858 1048 1008 1048 1319 1162 990 989 1116
0 2 1 3 0 0 0 0 0 0 0 0 0 0 0 0 0 0 0 0 55 491 705 786 957 1374 1654 1892 1949 1860 1622 1463
0 3 1 3 0 0 0 0 0 0 0 0 0 0 0 0 0 0 0 0 0 195 566 616 663 859 1058 1217 1600 1976 2057 2104
0 3 3 2 0 0 0 0 0 0 0 0 0 0 0 0 0 0 0 0 0 9 335 564 652 734 1010 1023 909 989 1296 1658
4 1 2 1 0 0 0 0 0 0 0 0 0 0 0 0 0 0 0 0 0 0 1 191 508 432 306 235 247 227 399 556

GFSFLT2_con_mlcape_051.txt.gz
CAPE
0 0 0 0 0 0 0 0 0 0 0 0 0 0 0 0 120 198 382 404 353 333 275 258 221 193 127 105 68 65 75 129
0 0 0 0 0 0 0 0 0 0 0 0 0 0 0 0 4 98 318 476 451 401 362 304 242 265 205 177 121 118 89 153
0 0 0 0 0 0 0 0 0 0 0 0 0 0 0 0 0 26 146 302 483 594 510 415 314 287 300 239 225 185 106 104
0 0 0 0 0 0 0 0 0 0 0 0 0 0 0 0 0 0 52 145 296 491 641 571 501 416 312 291 300 272 244 190
0 0 0 0 0 0 0 0 0 0 0 0 0 0 0 0 0 0 19 136 275 259 413 661 653 618 491 400 322 351 335 287
0 0 0 0 0 0 0 0 0 0 0 0 0 0 0 0 0 0 0 0 93 199 375 651 694 710 672 581 475 424 407 404
0 0 0 0 0 0 0 0 0 0 0 0 0 0 0 0 0 0 0 0 8 66 134 299 698 697 766 783 635 523 519 535
0 0 0 0 0 0 0 0 0 0 0 0 0 0 0 0 0 0 0 24 1 0 99 194 319 675 666 781 764 680 660 686
0 0 0 0 0 0 0 0 0 0 0 0 0 0 0 0 0 0 0 6 61 28 0 106 148 527 604 755 851 800 749 806
0 0 1 4 0 0 0 0 0 0 0 0 3 125 15 0 0 0 0 0 22 220 4 6 136 362 635 832 904 883 825 855
1 6 0 40 0 0 0 0 0 0 0 0 0 276 246 0 0 0 0 15 300 613 58 13 325 567 728 955 1013 944 875 907
1 0 21 2 0 0 0 0 0 0 0 0 98 245 1 0 0 0 1 187 626 277 106 219 567 740 844 966 1073 982 975 1059
6 2 1 1 3 0 0 0 0 0 0 0 0 0 0 0 0 0 94 318 1082 613 543 607 737 767 797 1022 1111 1205 1305 1324
2 2 0 2 0 0 0 0 0 0 0 0 0 0 0 0 0 2 40 302 735 969 643 797 741 768 896 988 1330 1506 1591 1546
0 0 3 12 3 2 8 2 0 0 0 0 0 0 0 0 0 0 20 183 691 1010 1004 1276 1004 1106 1157 1338 1480 1544 1639 1717
1 2 5 1 3 8 0 6 0 0 0 0 0 0 0 0 0 0 0 75 583 991 1103 1211 1499 1622 1842 1753 1461 1334 1468 1695
0 2 6 5 13 6 2 4 2 0 0 0 0 0 0 0 0 0 0 0 75 507 695 857 1068 1161 1207 1661 2398 1969 1690 1544
0 3 3 4 5 4 3 3 3 0 0 0 0 0 0 0 0 0 0 0 0 0 135 581 591 403 382 405 575 1412 2044 2251
5 2 7 3 3 3 3 3 5 3 0 0 0 0 0 0 0 0 0 0 0 0 0 0 189 131 24 26 361 336 411 663

GFSFLT2_con_mlcape_054.txt.gz
CAPE
0 0 0 0 0 0 0 0 0 0 0 0 0 0 0 0 51 274 388 590 704 649 520 350 411 489 491 600 741 813 633 963
0 0 0 0 0 0 0 0 0 0 0 0 0 0 0 0 0 58 211 466 561 788 717 579 434 464 553 553 718 806 652 835
0 0 0 0 0 6 1 0 0 0 0 0 0 0 0 0 0 1 114 430 501 740 807 749 615 490 598 595 664 669 745 774
0 1 0 0 15 0 19 0 0 0 0 0 0 0 0 0 0 0 19 187 504 631 690 785 794 667 591 583 634 704 749 964
0 0 0 0 0 1 12 16 2 0 0 0 0 0 0 0 0 0 6 48 269 510 638 728 891 844 715 687 555 645 810 762
0 0 0 0 0 0 0 9 0 9 15 0 0 0 0 0 0 0 0 26 126 270 368 800 870 1086 1053 830 687 535 722 703
0 0 0 0 0 0 0 0 1 4 24 22 0 0 0 0 0 0 0 0 3 71 270 724 1007 1309 1300 1006 919 759 913 811
0 0 0 0 0 0 0 0 0 0 0 13 0 0 0 0 0 16 0 70 29 5 228 490 812 1313 1495 1433 1184 1076 1227 1143
0 0 0 0 0 0 0 0 0 0 0 0 0 0 79 53 61 83 32 103 152 226 161 78 601 1005 1375 1674 1396 1316 1519 1486
0 0 0 0 0 0 0 0 0 0 0 5 0 8 390 13 0 40 3 20 139 292 409 647 91 388 1008 1373 1607 1667 1782 1717
10 1 0 9 113 52 98 43 17 1 0 0 0 130 650 0 0 5 0 27 110 223 536 811 945 113 568 1119 1516 1791 1875 1863
13 4 1 7 0 2 0 71 0 0 0 0 0 0 28 0 0 9 56 202 295 659 1032 1049 1123 157 390 1010 1300 1842 1883 1922
21 15 2 0 0 1 7 21 0 0 0 0 90 0 0 0 0 0 7 372 830 1416 1274 903 716 182 718 1173 1431 1802 1711 1712
12 19 18 0 0 2 1 11 3 3 1 0 0 0 0 0 0 0 5 750 1381 1396 1142 674 656 633 1402 1578 1556 1764 1749 1782
22 15 3 3 3 3 10 14 16 3 2 0 0 0 0 0 0 0 0 109 1271 1577 1475 1236 1068 1118 1451 1751 1789 1921 1962 2101
1 7 5 8 10 10 13 19 17 2 0 0 0 0 0 0 0 0 0 0 54 1071 1371 1784 1756 1675 1779 2001 2002 2134 2228 2317
0 1 1 8 7 6 11 17 9 3 1 0 0 0 0 0 0 0 0 0 0 0 531 599 709 940 1390 2138 2096 2247 2384 2458
1 3 4 5 10 5 4 8 16 6 1 0 0 0 0 0 0 0 0 0 0 0 0 13 32 185 489 1238 1708 2410 2233 2212
3 4 6 5 8 7 4 10 10 5 10 1 1 0 0 0 0 3 0 0 0 0 0 0 0 2 36 311 1091 1484 2012 2673

GFSFLT2_con_mlcape_057.txt.gz
CAPE
0 0 0 0 0 0 0 0 0 0 0 0 0 0 8 0 105 218 498 499 554 403 259 279 427 605 511 760 1323 1491 1079 1269
0 0 0 0 0 0 0 0 0 0 0 0 0 0 0 6 17 167 219 436 547 761 565 398 429 487 654 805 1280 1378 1194 1514
0 0 0 0 0 0 8 0 0 0 0 0 0 0 0 0 0 0 164 297 492 833 860 717 593 534 624 746 1014 1202 1253 1354
0 0 0 0 0 0 35 11 0 0 0 0 0 0 0 0 1 0 0 156 447 556 787 878 858 762 740 718 744 1112 1260 1495
0 0 0 0 0 6 2 0 18 1 0 0 0 0 0 0 0 0 0 66 278 406 527 931 992 987 825 814 798 841 1226 1310
0 0 0 0 0 2 38 31 6 9 18 0 1 1 0 0 0 0 2 18 113 304 499 800 1041 1318 1257 933 873 763 895 1008
0 0 0 0 0 5 46 50 16 7 3 22 27 0 28 0 0 0 3 23 70 154 517 1157 1198 1575 1505 1195 1148 975 998 1009
0 0 0 0 0 0 0 0 0 0 0 0 0 54 22 0 11 10 0 0 0 57 253 562 932 1575 1833 1544 1470 1216 1275 1168
21 1 0 0 0 0 0 0 0 0 0 0 0 0 20 80 96 84 73 26 53 85 62 193 566 1076 1556 1867 1611 1587 1562 1593
20 9 4 0 0 0 0 0 0 0 0 0 0 0 2 614 290 160 181 161 201 297 300 282 333 631 978 1560 1932 1827 1830 2075
35 19 5 0 35 84 2 0 5 4 0 0 0 0 0 29 329 382 403 434 394 363 344 454 628 384 456 1163 2124 2032 2320 2035
31 23 11 4 92 1 14 0 57 138 3 3 5 11 8 160 53 96 200 433 647 733 736 825 942 977 888 611 1525 2287 2364 2313
3 39 38 184 30 0 0 0 0 16 27 84 73 210 80 0 0 0 2 301 495 1229 1298 1422 1594 1336 1225 693 1145 2037 2384 2538
42 74 24 160 21 0 0 0 0 2 0 1 3 0 0 0 0 0 0 0 68 1512 1890 1768 1693 1714 1817 1543 1095 1959 2286 2558
64 34 201 51 9 12 0 0 1 15 3 5 2 0 0 0 0 0 0 0 2 819 2522 2318 1611 1050 1576 1411 1739 2193 2449 2660
1 26 3 2 2 1 0 0 1 20 11 6 9 5 0 0 0 1 0 0 2 77 687 1438 1624 2078 2029 2171 2176 2573 2632 2763
0 1 0 2 6 7 2 5 26 24 3 2 2 12 0 0 0 13 3 4 2 3 4 4 32 428 915 1845 2355 2331 2666 2653
0 1 3 3 7 8 5 28 15 8 3 3 3 5 1 0 1 35 3 11 0 1 0 1 0 0 18 420 1875 2411 2583 2692
3 5 2 7 10 12 8 28 14 1 2 6 3 5 0 0 25 12 13 0 19 7 0 0 2 0 0 0 492 2226 2481 2775

GFSFLT2_con_mlcape_060.txt.gz
CAPE
0 0 0 0 0 0 0 0 0 0 0 0 0 0 122 132 116 59 13 14 398 438 323 456 375 270 483 824 1012 1153 846 1231
0 0 0 0 0 0 0 0 0 0 0 0 0 0 0 41 11 2 1 2 42 588 442 526 482 547 443 935 1221 1437 1311 1415
0 0 0 0 0 0 0 0 0 0 0 0 0 0 0 80 25 0 0 3 128 200 605 485 598 692 628 636 1479 1691 1686 1413
0 0 0 0 0 0 0 0 0 0 0 0 0 0 0 0 29 128 240 290 16 0 1 592 576 688 936 795 991 1638 1785 1589
0 0 0 0 0 0 0 0 0 1 0 0 0 1 0 0 0 196 124 85 5 62 192 691 589 693 870 947 922 1446 1755 1622
0 0 0 0 0 0 0 0 0 0 0 0 0 0 1 1 1 0 193 231 256 329 409 909 825 817 885 876 963 1064 1527 1585
0 0 0 0 0 0 0 0 0 0 0 0 2 0 2 15 16 0 0 15 12 89 527 1071 1150 1170 1129 1130 983 1034 1100 1380
0 0 0 0 0 0 0 0 0 1 0 0 0 2 0 0 40 243 56 47 19 24 130 541 1240 1460 1427 1286 1284 1168 1124 1314
2 17 1 0 0 0 0 0 0 0 0 0 0 0 0 1 16 282 513 262 308 241 265 270 274 545 1782 1727 1460 1417 1362 1340
10 8 11 0 0 0 0 0 0 0 0 0 0 0 0 0 1 39 354 431 285 240 204 195 1 39 2071 2061 1839 1846 1530 1673
1 16 0 0 6 63 87 0 0 0 0 0 0 0 0 80 193 54 18 3 324 384 412 554 645 741 1020 2073 2081 1765 2102 1699
36 4 4 0 43 11 7 0 44 0 0 0 0 4 25 45 9 0 0 0 128 430 626 914 849 863 858 981 2536 2089 1783 2250
31 33 17 128 95 25 4 0 0 0 0 0 0 7 4 39 0 0 0 1 2 37 332 869 1781 1383 1068 937 1121 2631 2265 1926
40 16 6 211 51 27 37 2 0 0 0 0 0 0 0 0 0 0 0 0 1 3 339 1996 2524 2401 1588 1508 1183 1588 2660 2406
0 16 109 62 28 2 2 2 0 0 0 0 0 3 1 1 1 1 2 0 1 3 122 159 408 1512 2824 2361 2111 1560 2045 2669
0 16 3 0 1 3 2 5 1 0 0 0 0 1 1 5 0 0 3 2 0 4 2 3 2 3 602 1322 2640 2463 1543 3010
1 3 0 4 1 2 3 1 0 0 0 0 10 0 3 0 0 0 1 0 1 1 1 1 2 4 5 155 1156 2446 2379 3082
0 2 3 1 2 2 1 0 0 9 3 16 13 0 2 0 0 7 0 0 2 0 0 0 2 3 7 1 119 1733 3296 3301
0 3 7 6 2 7 6 11 19 4 2 10 7 2 2 0 3 0 0 0 2 1 0 0 0 2 4 0 0 411 1752 2889

GFSFLT2_con_mlcape_063.txt.gz
CAPE
0 0 0 0 0 0 0 0 0 0 0 0 0 84 373 215 0 0 146 93 362 305 168 111 139 168 245 208 152 413 284 12
0 0 0 0 0 0 0 0 0 0 0 0 0 0 184 237 128 143 335 341 252 161 284 191 154 216 198 398 266 440 484 224
0 0 0 0 0 0 0 0 0 0 0 0 0 0 156 280 224 311 205 59 30 171 324 265 148 161 267 559 440 487 458 724
0 0 0 0 0 0 0 0 0 0 0 0 0 0 1 388 291 435 226 35 176 139 132 197 234 366 250 463 725 617 665 595
0 0 0 0 0 0 0 0 0 0 0 0 0 0 0 0 96 378 295 282 218 174 269 199 61 93 441 402 893 932 975 770
0 0 0 0 0 0 0 0 0 0 0 0 0 0 0 0 129 512 353 345 227 121 0 0 12 69 449 462 570 1207 1273 1335
0 0 0 0 0 0 0 0 0 0 0 0 0 0 0 2 104 218 447 506 213 147 27 106 64 367 578 563 528 771 1461 1517
0 0 0 0 0 0 0 0 0 0 0 0 0 0 0 0 21 66 153 208 183 43 0 69 246 320 197 634 746 653 1072 1567
0 0 1 0 0 0 0 0 0 0 0 0 0 0 0 9 75 101 2 0 0 41 86 69 24 32 0 461 781 898 885 1373
0 0 0 0 0 0 0 0 0 0 0 0 0 0 0 0 0 0 4 0 0 0 0 1 6 108 128 180 760 745 941 992
4 0 0 0 0 3 0 0 0 0 0 0 0 0 0 0 0 0 0 0 0 0 0 0 38 23 224 441 483 642 1014 1191
2 0 0 3 44 1 0 0 0 0 0 0 0 0 0 0 0 0 0 0 0 0 0 1 48 283 402 4 136 472 1328 1589
0 9 0 17 85 12 0 0 0 0 0 0 0 0 0 0 0 0 0 0 0 0 0 18 52 73 1210 827 621 974 1481 1972
0 0 1 0 48 27 0 0 0 0 0 0 0 0 0 0 0 0 0 0 0 0 0 0 0 20 39 762 713 1297 1088 1850
1 1 0 0 0 0 0 0 0 0 0 0 0 0 0 0 0 0 0 0 0 0 0 0 0 1 35 93 100 587 1668 1759
0 0 0 0 0 0 0 0 0 0 0 0 0 0 0 1 1 0 0 0 0 0 0 0 0 0 3 1 1 56 1132 2379
0 1 0 0 0 1 2 2 0 0 0 4 1 0 0 4 10 16 0 0 0 2 0 0 0 0 1 4 6 11 685 2310
0 0 3 1 1 6 5 2 1 1 3 1 1 0 9 13 12 22 27 0 0 0 0 0 0 0 0 1 6 8 259 1555
0 0 0 0 0 0 1 2 5 4 3 1 0 1 26 23 8 36 8 0 0 1 0 0 0 0 0 0 3 3 7 225

GFSFLT2_con_mlcape_066.txt.gz
CAPE
0 0 0 0 0 0 0 0 0 0 0 0 0 0 122 190 178 97 228 198 256 74 28 27 9 0 0 108 51 41 24 0
0 0 0 0 0 0 0 0 0 0 0 0 0 0 28 110 156 226 206 214 350 156 81 81 82 15 0 13 57 59 38 3
0 0 0 0 0 0 0 0 0 0 0 0 0 0 1 223 186 124 251 216 367 246 125 97 184 177 68 18 51 178 130 75
0 0 0 0 0 0 0 0 0 0 0 0 0 0 0 56 116 109 160 212 286 338 249 151 106 203 200 172 134 104 225 211
0 0 0 0 0 0 0 0 0 0 0 0 0 0 1 23 226 138 201 155 85 71 248 286 248 174 218 261 305 247 272 263
0 0 0 0 0 0 0 0 0 0 0 0 0 0 0 1 165 264 162 71 32 67 136 115 71 57 142 290 472 415 397 377
0 0 0 0 0 0 0 0 0 0 0 0 0 0 100 69 17 111 87 3 47 101 88 79 3 0 24 170 421 618 534 583
0 0 0 0 0 0 0 0 0 0 0 0 0 0 0 0 0 0 0 0 0 0 19 10 60 3 4 94 267 729 765 743
0 0 0 0 0 0 0 0 0 0 0 0 0 0 0 0 0 0 1 1 0 0 0 0 1 20 28 59 278 438 1000 1049
0 0 0 0 0 0 0 0 0 0 0 0 0 0 0 0 0 0 0 0 0 0 0 0 0 36 53 90 55 509 600 1258
0 1 0 0 0 0 0 0 0 0 0 0 0 0 0 0 0 0 0 0 0 0 0 0 5 14 348 373 67 140 431 688
0 1 0 0 0 0 0 1 0 0 0 0 0 0 0 0 0 0 0 0 0 0 0 0 0 0 209 476 53 0 11 310
0 0 0 0 0 26 5 0 0 0 0 0 0 0 0 0 0 0 0 0 0 0 0 0 0 0 26 70 158 150 176 485
1 0 0 0 0 0 0 0 0 0 0 0 0 0 0 0 0 0 0 0 0 0 0 0 0 0 0 1 0 1 2 21
0 0 0 0 0 0 0 0 0 0 0 0 0 0 0 0 0 0 0 0 0 0 0 0 0 0 0 0 0 0 0 8
0 0 0 0 0 0 0 0 0 0 0 0 0 0 0 0 0 0 0 0 0 0 0 0 0 0 0 0 0 0 0 0
0 0 0 0 0 0 0 0 3 2 1 1 6 0 1 0 0 0 0 0 0 0 0 0 0 0 0 0 0 0 0 0
0 0 0 0 0 0 0 0 2 7 2 1 6 0 1 0 1 2 0 5 0 1 1 0 0 0 0 0 0 0 5 5
0 0 0 0 0 0 0 1 2 6 6 19 0 9 3 5 6 3 17 7 0 1 0 0 0 0 0 0 0 0 0 3

GFSFLT2_con_mlcape_069.txt.gz
CAPE
0 0 0 0 0 0 0 0 0 0 0 0 0 0 0 16 181 250 279 64 181 50 0 0 0 0 13 0 0 0 1 36
0 0 0 0 0 0 0 0 0 0 0 0 0 0 2 18 71 305 291 78 102 112 11 22 15 11 40 41 3 0 0 21
0 0 0 0 0 0 0 0 0 0 0 0 0 0 0 13 10 62 126 124 62 130 13 34 43 16 0 91 107 59 19 7
0 0 0 0 0 0 0 0 0 0 0 0 0 0 0 53 36 3 34 114 118 161 30 0 24 35 0 47 150 127 76 39
0 0 0 0 0 0 0 0 0 0 0 0 0 0 0 37 83 57 76 111 73 96 54 18 5 37 3 0 69 159 152 112
0 0 0 0 0 0 0 0 0 0 0 0 0 0 0 0 30 15 33 67 18 2 0 1 13 48 17 30 22 39 185 241
0 0 0 0 0 0 0 0 0 0 0 0 0 0 0 0 0 2 2 0 0 0 0 0 8 0 0 1 78 106 46 157
0 0 0 0 0 0 0 0 0 0 0 0 0 0 0 0 0 0 0 0 0 0 0 0 0 3 13 7 21 252 268 203
0 0 0 0 0 0 0 0 0 0 0 0 0 0 0 0 0 0 0 0 0 0 0 1 0 0 81 89 59 137 408 366
0 0 0 0 0 0 0 0 0 0 0 0 0 0 0 0 0 0 0 0 0 0 0 2 2 0 38 235 217 155 400 562
0 0 0 0 0 0 0 0 0 0 0 0 0 0 0 0 0 0 0 0 0 0 0 0 2 0 34 307 311 5 67 449
0 0 0 0 0 0 0 0 0 0 0 0 0 0 0 0 0 0 0 0 0 0 0 0 0 0 0 49 62 30 55 94
0 0 0 0 0 0 0 0 0 0 0 0 0 0 0 0 0 0 0 0 0 0 0 0 0 0 0 0 0 0 3 0
0 0 0 0 0 0 0 0 0 0 0 0 0 0 0 0 0 0 0 0 0 0 0 0 0 0 0 0 0 0 0 0
0 0 0 0 0 0 0 0 0 0 0 0 0 0 0 0 0 0 0 0 0 0 0 0 0 0 0 0 0 0 0 0
0 0 0 0 0 0 0 0 0 0 0 0 0 1 0 1 1 0 0 0 0 0 0 0 0 0 0 0 0 0 2 0
0 0 0 0 0 0 0 0 0 1 1 0 1 0 0 2 0 0 0 0 0 0 10 2 0 0 0 0 0 0 0 0
0 0 0 0 0 0 0 0 0 3 6 3 8 6 7 1 0 0 0 0 0 0 4 0 0 0 0 0 0 0 0 0
0 0 0 0 0 0 0 2 0 3 6 5 0 1 1 1 1 15 10 1 24 25 0 0 0 0 0 0 0 0 0 0

GFSFLT2_con_mlcape_072.txt.gz
CAPE
0 0 0 0 0 0 0 0 0 0 0 0 0 0 0 0 25 53 207 171 144 12 0 0 0 0 0 0 0 0 0 0
0 0 0 0 0 0 0 0 0 0 0 0 0 0 0 5 0 20 249 296 191 147 0 0 0 0 0 0 0 0 0 0
0 0 0 0 0 0 0 0 0 0 0 0 0 0 0 0 6 43 38 308 226 162 7 1 0 0 0 28 37 0 0 17
0 0 0 0 0 0 0 0 0 0 0 0 0 1 1 5 1 24 65 92 189 76 27 0 0 0 0 0 0 13 12 3
0 0 0 0 0 0 0 0 0 0 0 0 0 0 1 3 3 2 0 36 66 80 50 5 0 0 0 0 0 4 0 8
0 0 0 0 0 0 0 0 0 0 0 0 0 0 0 1 0 0 1 2 0 0 0 19 24 14 50 5 0 24 20 0
0 0 0 0 0 0 0 0 0 0 0 0 0 1 0 0 0 0 0 0 0 1 2 1 12 16 24 54 20 0 27 68
0 0 0 0 0 0 0 0 0 0 0 0 0 0 0 0 0 0 0 0 0 0 1 1 3 3 28 46 43 55 43 82
0 0 0 0 0 0 0 0 0 0 0 0 0 0 0 0 0 0 0 0 0 0 0 0 2 4 1 32 91 66 187 142
0 0 0 0 0 0 0 0 0 0 0 0 0 0 0 0 0 0 0 0 0 0 0 0 0 0 0 46 270 163 159 305
0 0 0 0 0 0 0 0 0 0 0 0 0 0 0 0 0 0 0 0 0 0 0 0 0 0 0 2 5 23 52 154
0 0 0 0 0 0 0 0 0 0 0 0 0 0 0 0 0 0 0 0 0 0 0 0 0 0 0 0 0 0 0 0
0 0 0 0 0 0 0 0 0 0 0 0 0 0 0 0 0 0 0 0 0 0 0 0 0 0 0 0 0 0 0 0
0 0 0 0 0 0 0 0 0 0 0 0 0 0 0 0 0 0 0 0 0 0 0 0 0 0 0 0 0 0 0 0
0 0 0 0 0 0 0 0 0 0 0 0 0 0 0 0 0 0 0 0 0 0 0 0 0 0 0 0 0 0 0 0
0 0 0 0 0 0 0 0 0 0 0 0 0 0 0 0 0 0 0 0 0 0 0 0 0 0 0 0 0 0 0 0
0 0 0 0 0 0 0 0 0 0 0 1 3 3 4 2 0 0 0 0 0 0 0 0 0 0 0 0 0 0 0 0
0 0 0 0 0 0 0 0 0 0 1 4 10 4 2 0 1 4 1 0 0 0 0 0 0 4 0 0 0 0 0 0
0 0 0 0 0 0 0 0 3 3 0 0 0 1 1 5 2 0 1 6 13 4 0 0 0 1 0 0 0 0 0 0

GFSFLT2_con_mlcape_075.txt.gz
CAPE
0 0 0 0 0 0 0 0 0 0 0 0 0 0 0 1 8 59 255 131 345 293 68 75 72 102 120 161 183 215 247 345
0 0 0 0 0 0 0 0 0 0 0 0 0 0 0 1 12 12 69 380 372 516 167 149 132 129 122 147 187 188 227 282
0 0 0 0 0 0 0 0 0 0 0 1 4 2 4 6 7 6 159 327 579 487 232 169 129 111 120 123 151 158 199 236
0 0 0 0 0 0 0 0 0 0 0 0 4 1 3 5 4 6 1 98 388 500 238 189 123 100 90 122 160 150 155 177
0 0 0 0 0 0 0 0 0 0 0 0 0 0 0 1 3 4 6 6 6 46 95 283 168 101 74 59 102 179 188 98
0 0 0 0 0 0 0 0 0 0 0 0 0 0 0 0 1 2 2 3 2 1 5 10 51 196 248 155 97 159 179 195
0 0 0 0 0 0 0 0 0 0 0 0 0 0 0 0 0 0 0 0 1 1 2 3 2 4 58 186 185 196 296 273
0 0 0 0 0 0 0 0 0 0 0 0 0 0 0 0 0 0 0 0 0 0 0 0 3 4 3 5 89 155 164 415
0 0 0 0 0 0 0 0 0 0 0 0 0 0 0 0 0 0 0 0 0 0 0 0 0 0 0 2 107 333 258 260
0 0 0 0 0 0 0 0 0 0 0 0 0 0 0 0 0 0 0 0 0 0 0 0 0 0 0 0 3 122 548 465
0 0 0 0 0 0 0 0 0 0 0 0 0 0 0 0 0 0 0 0 0 0 0 0 0 0 0 0 0 1 5 35
0 0 0 0 0 0 0 0 0 0 0 0 0 0 0 0 0 0 0 0 0 0 0 0 0 0 0 0 0 0 1 3
0 0 0 0 0 0 0 0 1 0 0 0 0 0 0 0 0 0 0 0 0 0 0 0 0 0 0 1 0 0 0 0
0 0 0 0 0 0 0 0 0 0 0 0 0 0 0 0 0 0 0 0 0 0 0 0 0 0 0 0 4 0 0 0
0 0 0 0 0 0 0 0 0 0 0 0 0 0 0 0 0 0 0 0 0 0 0 0 0 0 0 0 5 1 0 0
0 0 0 0 0 0 0 0 0 0 0 0 0 0 0 0 0 0 0 0 0 0 0 0 0 0 0 2 14 0 0 0
0 0 0 0 0 0 0 0 0 0 0 1 3 2 5 6 5 6 6 4 3 5 4 1 0 0 0 0 16 1 0 0
0 0 0 0 0 0 0 0 0 0 0 4 3 2 5 5 0 1 4 2 9 19 14 6 8 12 3 5 6 0 0 1
0 0 0 0 0 0 0 0 0 0 0 0 1 2 5 7 7 7 8 2 0 0 1 10 1 2 1 2 0 0 0 0

GFSFLT2_con_mlcape_078.txt.gz
CAPE
0 0 0 0 0 0 0 0 0 0 0 0 0 0 42 12 28 207 332 795 789 579 453 421 422 418 452 572 880 978 913 1001
0 0 0 0 0 0 0 0 0 0 0 0 0 0 3 5 6 117 423 677 849 880 572 466 487 517 597 662 816 1038 938 900
0 0 0 0 0 0 0 0 0 0 1 0 1 2 6 7 7 9 102 534 680 666 824 586 534 558 602 728 789 1000 1016 875
0 0 0 0 0 0 0 0 0 2 2 1 2 1 2 6 6 6 6 6 34 152 735 798 673 718 673 648 654 782 859 918
0 0 0 0 0 0 0 0 0 0 0 1 5 4 1 3 4 4 4 4 5 5 5 26 217 745 694 662 632 588 613 618
0 0 0 0 0 0 0 0 2 0 0 1 1 3 5 2 0 0 0 1 2 3 3 3 5 51 199 638 599 517 588 691
0 0 0 0 0 0 0 0 0 0 0 0 1 0 0 0 0 0 0 0 0 0 0 1 2 3 4 4 164 769 659 689
0 0 0 0 0 0 0 0 0 0 0 0 0 0 0 0 0 0 0 0 0 0 0 0 0 0 0 2 6 238 702 767
0 0 0 0 0 0 0 0 0 0 0 0 0 0 0 0 0 0 0 0 0 0 0 0 0 0 0 0 2 2 435 948
0 0 0 0 0 0 0 0 0 0 0 0 0 0 0 0 0 0 0 0 0 0 0 0 0 0 0 0 0 0 0 0
0 0 0 0 0 0 0 0 0 0 0 0 0 0 0 0 0 0 0 0 0 0 0 0 0 0 0 0 0 0 0 0
0 0 0 0 0 0 0 0 0 0 0 0 0 0 0 0 0 0 0 0 0 0 0 0 0 0 0 0 0 0 0 0
0 0 0 0 0 0 0 0 0 0 0 0 0 0 0 0 0 0 0 0 0 0 0 0 0 0 0 0 0 0 0 0
0 0 0 0 0 0 0 0 0 0 0 0 0 0 0 0 0 0 0 0 0 0 0 0 0 0 0 0 0 0 0 0
0 3 0 0 0 0 0 0 0 0 0 0 0 0 0 0 0 0 0 0 0 0 0 0 0 0 0 0 0 0 0 0
0 0 0 0 0 0 0 0 0 0 0 0 0 0 0 0 0 0 0 0 0 1 0 0 0 0 0 0 0 0 0 0
0 0 0 0 0 0 0 0 0 0 0 0 0 0 1 0 0 1 4 2 3 9 8 0 0 1 7 13 9 0 0 0
0 0 0 0 0 0 0 0 0 0 0 0 1 5 2 5 3 1 6 2 6 7 13 10 6 6 5 2 0 10 18 0
0 0 0 0 0 0 0 0 0 0 0 0 3 5 5 4 1 1 1 8 11 14 4 6 6 12 8 10 6 0 0 12

GFSFLT2_con_mlcape_081.txt.gz
CAPE
17 6 0 0 0 0 13 14 2 49 71 76 63 83 21 29 285 559 97 846 616 517 354 267 196 148 372 686 1194 1450 1338 1468
0 0 0 0 0 0 0 7 8 47 40 89 0 32 3 4 15 236 893 644 479 531 529 416 473 270 382 680 1038 1468 1521 1441
0 0 0 0 0 1 18 8 42 19 128 81 0 2 5 5 7 7 12 61 182 218 549 476 680 664 592 729 929 1317 1498 1431
0 0 0 0 2 0 1 0 0 4 99 5 0 0 3 7 6 5 4 5 5 5 47 175 403 543 599 703 896 1145 1346 1579
0 0 0 0 0 0 3 10 26 2 65 25 14 15 1 2 2 3 3 1 0 2 0 4 12 283 336 332 724 934 1164 1365
1 0 0 0 0 0 0 0 18 143 75 62 16 10 0 0 0 0 0 0 0 0 1 4 3 5 11 127 345 523 946 1126
0 0 0 0 0 0 0 0 17 254 105 62 11 6 4 2 0 0 0 0 0 0 0 0 0 0 0 3 15 235 972 1090
0 0 0 0 0 0 0 0 0 100 71 13 2 0 0 0 0 0 0 0 0 0 0 0 0 0 0 0 2 6 67 375
0 0 0 0 0 0 0 0 0 93 55 5 1 0 0 0 0 0 0 0 0 0 0 0 0 0 0 0 0 0 0 0
0 0 0 0 0 0 0 0 0 0 0 0 0 0 0 0 0 0 0 0 0 0 0 0 0 0 0 0 0 0 0 0
0 0 0 0 0 0 0 0 0 0 0 0 0 0 0 0 0 0 0 0 0 0 0 0 0 0 0 0 0 1 0 0
0 0 0 0 0 0 0 0 0 0 0 0 0 0 0 0 0 0 0 0 0 0 0 0 0 0 0 0 0 0 0 0
0 0 0 0 0 0 0 0 0 0 0 0 0 0 0 0 0 0 0 0 0 0 0 0 0 0 0 0 0 0 0 0
0 1 0 0 0 0 0 0 0 0 0 0 0 0 0 0 0 0 0 0 0 0 0 0 0 0 0 0 0 0 0 0
2 48 1 0 0 0 0 0 0 0 0 0 0 0 0 0 0 0 0 0 0 0 0 0 0 0 0 0 0 0 0 0
0 0 0 0 0 0 0 0 0 0 0 0 0 0 0 0 0 0 0 0 0 1 1 1 2 1 0 0 0 0 0 0
0 0 0 0 0 0 0 0 0 0 0 0 0 0 0 0 1 0 0 0 1 1 1 3 3 1 1 6 5 4 0 0
0 3 1 0 0 0 0 0 0 0 0 0 0 0 0 3 1 1 1 1 1 2 2 2 2 3 4 4 4 6 8 0
8 2 0 0 0 0 0 0 0 0 0 0 0 0 0 1 4 0 0 0 1 3 1 2 2 2 1 4 2 3 5 7

GFSFLT2_con_mlcape_084.txt.gz
CAPE
0 0 3 1 0 24 37 15 6 164 144 144 81 120 133 221 544 480 675 524 309 438 351 376 131 141 329 909 1318 1596 1459 1575
9 33 42 9 0 0 0 0 13 258 219 144 170 115 20 34 48 3 37 325 317 176 136 577 224 233 656 988 1301 1522 1517 1762
18 0 3 0 0 0 0 0 4 228 119 168 87 51 4 4 4 3 3 21 119 58 1 299 401 226 496 1320 1372 1707 1755 1771
0 0 0 0 0 0 0 0 0 1 74 27 41 12 3 3 5 6 2 0 3 5 31 8 11 345 327 337 1031 1424 1697 1787
2 0 0 0 0 0 2 0 7 9 70 101 81 3 1 2 2 3 0 3 3 4 0 45 0 0 6 217 303 642 1558 1806
0 0 0 0 0 0 0 0 13 311 147 135 147 23 0 0 0 0 1 1 2 5 3 7 4 0 4 10 0 165 685 187
0 0 0 0 0 0 0 0 283 377 133 160 89 41 2 0 0 0 0 0 0 0 0 1 0 0 0 2 0 5 149 344
0 0 0 0 0 0 0 0 69 160 230 50 3 5 6 0 0 0 0 0 0 0 0 0 0 0 0 1 0 0 0 24
0 0 0 0 0 0 0 0 324 248 57 10 0 0 0 0 0 0 0 0 0 0 0 0 0 0 0 0 0 0 0 0
0 0 0 0 0 0 0 0 220 361 105 1 0 0 0 0 0 0 0 0 0 0 0 0 0 0 0 0 0 0 0 0
0 0 0 0 0 0 0 0 47 215 56 0 0 0 0 0 0 0 0 0 0 0 0 0 0 0 0 0 0 0 0 0
0 0 0 0 0 0 0 5 0 8 28 3 0 0 0 0 0 0 0 0 0 0 0 0 0 0 0 0 0 0 0 0
7 7 21 0 0 0 0 27 0 0 0 0 0 0 0 0 0 0 0 0 0 0 0 0 0 0 0 0 0 0 0 0
0 14 35 0 0 0 0 0 0 0 0 1 0 0 0 0 0 0 0 0 0 0 0 0 0 0 0 0 0 0 0 0
50 57 1 0 0 0 0 0 0 0 0 0 0 0 0 0 0 0 0 0 0 0 0 0 0 0 0 0 0 0 0 0
2 26 3 0 0 0 0 0 0 0 0 0 0 0 0 0 0 0 0 0 0 0 0 0 0 0 0 0 0 0 0 0
0 0 0 0 0 0 0 0 0 0 0 0 0 0 0 0 0 0 0 1 0 0 0 1 0 0 0 0 0 0 0 0
7 8 7 11 4 2 0 0 0 0 0 0 0 0 0 0 0 0 1 1 2 4 5 3 1 1 0 0 0 0 1 0
6 7 3 0 0 0 0 0 0 0 0 0 0 0 0 0 1 0 0 0 0 0 2 4 4 1 2 0 1 0 0 0

GFSFLT2_con_mlcape_087.txt.gz
CAPE
0 0 0 0 0 0 0 1 14 220 150 116 90 138 115 100 117 2 0 1 0 5 81 250 12 191 285 477 565 501 848 247
0 0 0 0 0 0 0 0 27 192 191 224 171 68 120 105 75 22 21 50 16 17 42 75 46 253 448 632 494 586 1101 774
1 0 0 0 0 0 0 0 0 47 111 245 41 22 0 6 40 53 37 252 212 112 51 34 19 140 587 848 839 691 751 1014
4 2 6 2 0 0 0 0 2 158 141 41 0 0 0 0 9 6 3 14 86 54 142 90 18 30 91 75 523 968 1205 1429
3 6 0 0 0 0 0 0 0 8 130 69 23 0 2 1 1 3 1 1 0 1 2 1 0 40 4 56 171 348 664 1295
1 0 0 0 0 0 0 0 120 259 112 90 15 2 1 0 1 2 1 3 3 2 1 0 0 6 0 13 45 77 221 307
0 0 0 0 0 0 0 114 145 249 90 117 28 0 0 0 0 0 0 0 0 1 2 1 0 3 1 0 17 9 18 53
0 0 0 0 0 0 0 101 53 103 226 126 3 1 5 0 0 0 0 0 0 0 0 0 0 1 1 0 0 0 0 2
0 0 0 0 0 0 105 353 266 187 233 94 17 0 0 0 0 0 0 0 0 0 0 0 0 0 0 0 0 0 0 0
0 0 0 0 0 0 0 383 204 153 52 0 0 0 0 0 0 0 0 0 0 0 0 0 0 0 0 0 0 0 0 0
0 0 0 0 0 0 167 472 331 171 18 0 0 0 0 0 0 0 0 0 0 0 0 0 0 0 0 0 0 0 0 0
4 0 0 0 0 0 12 115 351 23 0 0 0 0 0 0 0 0 0 0 0 0 0 0 0 0 0 0 0 0 0 0
0 0 0 0 0 0 0 11 254 18 0 0 0 0 0 0 0 0 0 0 0 0 0 0 0 0 0 0 0 0 0 0
0 0 0 0 0 0 17 0 0 3 0 0 0 0 0 0 0 0 0 0 0 0 0 0 0 0 0 0 0 0 0 0
63 0 0 0 0 0 0 0 0 0 0 0 0 0 0 0 0 0 0 0 0 0 0 0 0 0 0 0 0 0 0 0
45 5 0 0 0 0 0 0 0 0 0 0 0 0 0 0 0 0 0 0 0 0 0 0 0 0 0 0 0 0 0 0
0 5 0 0 0 0 0 0 0 0 0 0 0 0 0 0 0 0 0 0 0 0 0 0 0 0 0 0 0 0 0 0
0 4 3 16 0 0 0 0 0 0 0 0 0 0 0 0 0 0 0 0 0 0 0 0 0 0 0 0 0 0 0 0
0 0 0 0 0 5 0 0 0 0 0 0 0 0 0 0 0 0 0 0 0 0 0 0 0 0 0 0 0 0 0 0

GFSFLT2_con_mlcape_090.txt.gz
CAPE
0 0 0 0 0 0 0 7 0 3 56 58 192 222 128 111 152 126 60 20 40 19 44 113 100 201 296 324 217 163 80 270
0 0 0 0 0 0 0 0 0 11 69 85 106 193 250 114 43 56 35 2 6 0 19 23 97 91 280 454 253 213 238 199
0 0 0 0 0 0 0 0 0 4 66 145 99 47 56 55 83 67 30 15 24 9 32 54 61 77 280 323 433 551 465 348
0 0 0 0 0 0 0 0 9 134 72 51 26 54 49 43 52 48 53 111 181 91 72 74 82 65 111 270 227 286 388 502
0 0 2 0 0 0 0 0 0 0 13 4 6 0 1 18 10 0 4 19 31 34 72 79 31 51 80 102 141 169 283 306
0 0 0 0 0 0 0 0 22 30 27 20 1 1 4 3 1 1 2 1 1 1 1 5 4 59 37 113 106 71 100 87
0 0 0 0 0 0 0 0 4 72 15 26 1 0 0 0 0 0 0 1 2 1 2 1 1 0 9 35 51 53 28 86
0 0 0 0 0 0 0 213 210 191 80 7 0 0 0 0 0 0 0 0 0 1 2 1 1 0 0 7 19 10 51 20
0 0 0 0 0 4 53 289 242 79 23 0 0 0 0 0 0 0 0 0 0 0 0 0 0 0 0 0 0 0 3 1
0 0 0 0 0 306 207 87 201 145 13 0 0 0 0 0 0 0 0 0 0 0 0 0 0 0 0 2 1 0 1 0
0 0 0 0 0 0 67 270 353 113 1 0 0 0 0 0 0 0 0 0 0 0 0 0 0 0 0 0 0 0 0 0
0 0 0 0 0 0 189 52 0 0 0 0 0 0 0 0 0 0 0 0 0 0 0 0 0 0 0 0 0 0 0 0
0 0 0 0 0 0 0 7 0 0 0 0 0 0 0 0 0 0 0 0 0 0 0 0 0 0 0 0 0 0 0 0
0 0 0 0 0 0 0 0 0 0 0 0 0 0 0 0 0 0 0 0 0 0 0 0 0 0 0 0 0 0 0 0
4 0 0 0 0 0 0 0 0 0 0 0 0 0 0 0 0 0 0 0 0 0 0 0 0 0 0 0 0 0 0 0
0 0 0 0 0 0 0 0 0 0 0 0 0 0 0 0 0 0 0 0 0 0 0 0 0 0 0 0 0 0 0 0
0 0 0 0 0 0 0 0 0 0 0 0 0 0 0 0 0 0 0 0 0 0 0 0 0 0 0 0 0 0 0 0
0 0 0 0 0 0 0 0 0 0 0 0 0 0 0 0 0 0 0 0 0 0 0 0 0 0 0 0 0 0 0 0
0 0 0 0 0 0 0 0 0 0 0 0 0 0 0 0 0 0 0 0 0 0 0 0 0 0 0 0 0 0 0 0

GFSFLT2_con_mlcape_093.txt.gz
CAPE
0 0 0 0 0 0 0 0 0 1 0 50 202 146 248 226 126 62 24 4 11 67 35 98 147 270 218 165 78 69 74 171
0 0 0 0 0 0 0 0 0 0 0 0 165 228 186 169 109 41 14 8 32 58 70 113 99 166 406 272 179 127 111 117
0 0 0 0 0 0 0 0 0 0 0 153 96 165 159 74 93 51 26 7 4 44 52 26 64 126 243 434 410 299 269 249
0 0 0 0 0 0 0 0 0 0 0 1 35 15 69 56 41 47 40 28 40 7 20 5 41 81 164 274 271 250 286 363
0 0 0 0 0 0 0 0 0 0 0 56 15 25 15 43 10 28 55 76 104 47 26 70 86 123 100 59 99 62 121 234
0 0 0 0 0 0 0 0 0 0 0 96 70 29 18 16 1 0 1 9 47 54 27 52 67 117 90 61 94 49 52 67
0 0 0 0 0 0 0 0 0 0 0 25 30 10 2 4 1 1 1 1 2 14 32 33 7 43 98 113 94 57 56 38
0 0 0 0 0 0 0 0 32 14 18 65 0 0 0 0 0 0 0 1 1 1 0 7 3 15 31 59 30 18 54 53
8 0 0 0 0 0 76 115 38 4 17 36 13 3 0 0 0 0 1 1 1 1 1 0 1 1 0 0 0 1 0 5
1 0 0 0 0 2 414 246 204 47 35 29 5 0 0 0 0 0 0 0 0 0 0 2 2 1 0 0 0 0 1 3
0 0 0 0 0 0 7 110 234 64 14 0 0 0 0 0 0 0 0 0 0 0 0 0 0 0 0 0 0 0 0 0
0 0 0 0 0 0 0 62 136 112 5 0 0 0 0 0 0 0 0 0 0 0 0 0 0 0 0 0 0 0 0 0
0 0 0 0 0 0 0 0 3 0 0 0 0 0 0 0 0 0 0 0 0 0 0 0 0 0 0 0 0 0 0 0
0 0 1 0 0 0 0 0 0 0 0 0 0 0 0 0 0 0 0 0 0 0 0 0 0 0 0 0 0 0 0 0
0 0 0 0 0 0 0 6 0 0 0 0 0 0 0 0 0 0 0 0 0 0 0 0 0 0 0 0 0 0 0 0
0 0 0 0 0 0 0 0 0 0 0 0 0 0 0 0 0 0 0 0 0 0 0 0 0 0 0 0 0 0 0 0
0 0 0 0 0 0 0 0 0 0 0 0 0 0 0 0 0 0 0 0 0 0 0 0 0 0 0 0 0 0 0 0
0 0 0 0 0 0 0 0 0 0 0 0 0 0 0 0 0 0 0 0 0 0 0 0 0 0 0 0 0 0 0 0
0 0 0 0 0 0 0 0 0 0 0 0 0 0 0 0 0 0 0 0 0 0 0 0 0 0 0 0 0 0 0 0

GFSFLT2_con_mlcape_096.txt.gz
CAPE
0 0 0 0 0 0 0 0 0 0 0 10 88 75 166 158 76 38 4 11 49 74 60 89 70 159 118 99 26 13 72 183
0 0 0 0 0 0 0 0 0 0 0 0 43 152 155 195 120 39 11 0 30 33 0 12 44 130 147 152 121 94 86 124
0 0 0 0 0 0 0 0 0 0 0 77 104 224 209 155 105 68 20 14 9 40 33 27 44 106 262 203 125 137 122 56
0 0 0 0 0 0 0 0 0 0 0 49 126 216 173 100 47 14 17 14 20 52 57 34 4 106 159 206 124 160 183 150
0 0 0 0 0 0 0 0 0 0 0 15 59 108 102 58 35 40 17 26 1 47 63 58 40 24 97 98 65 37 91 180
0 0 0 0 0 0 0 0 0 0 0 0 94 99 72 60 11 33 72 48 85 13 36 68 56 49 62 41 13 1 39 71
0 0 0 0 0 0 0 0 0 0 0 0 101 87 72 15 13 2 3 33 128 112 56 42 91 113 120 109 84 47 45 6
0 0 0 0 0 0 0 0 8 0 0 18 51 49 25 16 14 8 16 1 6 25 26 31 46 82 85 76 74 60 44 12
0 0 0 0 0 0 0 17 53 0 29 120 134 111 14 1 0 3 5 4 22 10 1 1 0 0 5 8 9 0 0 4
0 0 5 0 0 0 105 192 134 91 83 136 68 1 0 0 0 0 0 0 0 2 2 1 1 0 0 0 0 0 0 0
0 0 0 0 0 0 4 114 174 94 96 16 0 0 0 0 0 0 0 0 0 0 0 0 0 0 0 0 0 0 0 0
0 0 0 0 0 0 0 41 137 70 25 15 16 26 0 0 0 0 0 0 0 0 0 0 0 0 0 0 0 0 0 0
0 0 0 0 0 0 0 1 127 48 0 0 6 0 0 0 0 0 0 0 0 0 0 0 0 0 0 0 0 0 0 0
0 0 0 0 0 0 0 0 9 0 0 0 0 0 0 0 0 0 0 0 0 0 0 0 0 0 0 0 0 0 0 0
0 0 0 0 0 0 0 11 0 4 0 0 0 0 0 0 0 0 0 0 0 0 0 0 0 0 0 0 0 0 0 0
0 0 0 0 0 0 0 5 0 0 0 0 0 0 0 0 0 0 0 0 0 0 0 0 0 0 0 0 0 0 0 0
0 0 0 0 0 0 0 0 2 0 0 0 0 0 0 0 0 0 0 0 0 0 0 0 0 0 0 0 0 0 0 0
0 0 0 0 0 0 0 0 2 8 0 0 0 0 0 0 0 0 0 0 0 0 0 0 0 0 0 0 0 0 0 0
0 0 0 0 0 0 0 0 0 0 0 0 0 0 0 0 0 0 0 0 0 0 0 0 0 0 0 0 0 0 0 0

GFSFLT2_con_mlcape_099.txt.gz
CAPE
0 0 0 0 0 0 13 0 0 2 0 9 88 152 159 40 205 98 88 45 42 171 207 270 151 200 261 271 227 177 180 347
0 0 0 0 0 0 0 1 2 0 0 0 48 102 258 334 155 119 78 53 99 63 113 110 155 146 242 318 219 204 177 350
0 0 0 0 0 0 0 0 0 0 0 47 81 237 314 448 422 286 160 76 209 128 77 80 77 46 156 222 245 240 156 188
0 0 0 0 0 0 0 0 0 0 0 136 275 397 445 456 374 369 287 200 220 219 148 67 0 18 170 357 238 257 307 244
0 0 0 0 0 0 0 0 0 0 0 35 200 374 403 380 314 292 252 207 226 276 258 132 36 24 68 155 241 156 212 317
0 0 0 0 0 0 0 0 0 0 0 0 120 316 324 354 327 325 288 280 234 233 241 232 115 76 119 81 50 43 79 135
0 0 0 0 0 0 0 0 0 0 0 6 144 256 197 199 242 269 247 261 289 287 280 298 269 194 129 67 43 21 4 0
9 0 0 0 0 0 0 0 0 9 0 68 269 205 181 182 180 220 262 191 186 226 186 147 211 187 140 88 65 30 46 48
14 0 0 0 0 0 0 22 35 31 100 328 178 291 179 122 98 115 102 113 159 121 71 67 115 84 76 84 43 53 83 67
15 1 14 0 0 0 19 236 248 199 134 240 224 218 64 19 29 25 18 19 15 0 0 0 0 0 0 0 0 0 0 0
1 15 1 0 0 0 0 57 247 220 186 106 42 2 2 4 14 0 1 0 1 2 2 1 0 0 0 0 0 0 0 0
17 15 15 0 0 0 0 78 294 223 151 73 66 132 5 0 0 1 1 1 2 3 3 0 0 0 0 0 0 0 0 0
5 0 9 0 0 0 34 15 232 280 72 100 147 55 0 0 2 4 2 0 0 0 0 0 0 0 0 0 0 0 0 0
0 0 2 2 2 0 0 0 88 64 2 0 0 0 0 0 3 0 0 0 0 0 0 0 0 0 0 0 0 0 0 0
2 10 0 0 0 0 0 0 10 9 0 0 0 0 0 0 0 1 0 0 0 0 0 0 0 0 0 0 0 0 0 0
7 0 0 0 0 0 9 4 0 0 0 0 0 0 0 0 0 0 0 0 0 0 0 0 0 0 0 0 0 0 0 0
0 0 0 0 0 0 33 47 8 0 0 0 0 0 0 0 0 0 0 0 0 0 0 0 0 0 0 0 0 0 0 0
0 0 0 0 0 0 12 51 40 11 1 0 0 0 0 0 0 0 0 0 0 0 0 0 0 0 0 0 0 0 0 0
0 0 0 0 0 0 0 0 0 2 0 0 0 9 0 3 0 0 0 0 0 0 0 0 0 0 0 0 0 0 0 0

GFSFLT2_con_mlcape_102.txt.gz
CAPE
0 0 0 0 0 0 0 20 34 77 18 137 132 262 244 177 106 242 134 149 192 310 471 482 488 618 499 505 699 735 608 805
0 0 0 0 0 0 8 20 27 88 36 91 336 371 360 192 228 306 195 51 173 282 444 362 395 657 594 610 759 612 520 589
0 0 0 0 0 0 0 0 1 29 21 294 408 501 516 373 362 441 322 229 151 209 448 569 613 522 342 729 802 685 514 375
0 0 0 0 0 0 0 0 0 8 88 451 623 781 823 797 509 417 292 355 353 149 265 539 549 197 233 219 518 701 541 584
26 11 0 0 0 0 0 0 0 0 0 460 592 764 806 953 1044 891 631 485 526 576 366 311 165 71 74 186 449 526 713 607
28 43 20 0 0 0 0 0 0 0 0 167 259 549 846 767 744 828 783 721 757 818 734 662 356 137 53 20 50 301 490 619
17 3 0 31 24 0 0 0 0 0 0 0 338 662 869 779 585 676 606 600 643 630 659 682 570 381 176 30 12 30 88 95
35 32 33 10 0 0 0 0 0 0 3 184 612 752 802 722 672 587 646 603 691 673 700 701 584 475 291 185 131 86 6 7
29 81 61 33 28 4 5 5 0 1 66 470 771 754 714 714 619 646 552 579 700 852 759 749 777 624 516 268 122 74 13 3
50 100 30 110 37 28 8 47 324 253 379 564 772 681 680 595 500 400 327 257 196 140 101 83 173 341 304 212 187 164 95 43
82 82 90 33 21 7 8 154 415 551 540 486 559 388 261 194 236 186 60 22 3 4 2 1 0 2 4 1 1 1 0 2
110 47 42 79 0 0 0 74 191 430 435 316 186 289 216 138 110 3 5 2 3 5 6 2 2 1 0 1 0 0 0 0
41 29 108 63 2 2 28 72 136 297 279 244 230 93 101 36 10 4 5 5 5 2 3 4 0 0 0 0 0 0 0 0
121 59 49 119 141 118 109 35 106 212 80 33 13 37 68 5 4 3 2 1 0 0 0 0 0 0 0 0 0 0 0 0
175 261 222 233 239 261 219 118 193 244 2 18 22 38 6 5 3 1 0 0 0 0 0 0 0 0 0 0 0 0 0 0
176 130 81 51 62 335 361 260 246 159 2 8 2 10 7 3 2 0 0 0 0 0 0 0 0 0 0 0 0 0 0 0
187 71 39 23 4 144 383 422 252 158 29 0 0 2 2 0 0 1 0 0 0 0 0 0 0 0 0 0 0 0 0 0
174 238 267 34 0 44 196 283 267 124 13 1 0 0 0 0 0 0 0 0 0 0 0 0 0 0 0 0 0 0 0 0
202 65 68 0 0 0 14 96 167 161 90 32 9 0 0 14 9 3 0 0 0 0 0 0 0 0 0 0 0 0 0 0

GFSFLT2_con_mlcape_105.txt.gz
CAPE
0 0 6 2 20 60 110 0 17 42 192 189 325 264 260 379 378 115 132 13 132 162 276 145 281 316 370 663 810 792 818 899
0 0 0 0 7 16 4 6 21 11 126 149 226 311 294 341 431 479 234 84 140 215 208 212 366 417 497 543 675 611 543 540
0 0 0 0 0 0 19 5 7 43 132 305 339 489 517 500 395 481 302 211 115 271 224 326 513 489 547 489 788 643 591 451
11 0 0 0 0 0 0 0 2 5 267 558 504 485 577 468 404 565 431 290 203 124 184 871 718 749 808 1270 785 573 657 688
31 11 0 0 0 0 0 0 15 6 230 623 726 772 782 717 647 735 771 368 206 141 216 882 1143 1226 917 1017 799 912 979 866
5 5 0 1 0 0 1 12 2 14 113 552 548 739 1046 1249 1157 916 688 534 745 572 360 599 585 599 724 489 257 265 241 743
11 0 0 1 5 0 0 0 15 24 26 38 504 674 1088 1291 1301 1525 1220 866 701 904 656 576 702 542 424 245 166 66 42 230
20 1 0 3 16 15 20 3 2 0 5 135 831 919 1213 1150 900 1012 981 1069 1078 1117 989 921 1034 915 644 459 369 149 96 149
28 19 22 2 14 26 8 9 21 25 9 537 550 807 1040 1053 865 774 1146 881 1014 816 885 950 1015 949 793 520 300 276 160 111
65 32 30 89 50 68 38 51 62 101 62 521 587 1026 987 985 852 770 665 910 753 645 599 678 902 910 837 641 640 364 360 135
94 41 3 9 94 101 54 174 322 227 221 433 1034 1047 639 654 614 642 393 146 70 24 16 6 68 460 703 579 487 424 340 278
219 162 52 73 4 9 35 48 113 65 565 746 743 574 632 408 266 141 5 7 7 7 8 3 3 4 13 17 26 17 28 29
136 99 127 36 4 0 42 154 127 329 519 437 621 474 632 369 72 4 6 7 6 4 6 6 2 1 4 2 3 2 0 0
177 60 0 108 167 220 252 227 185 348 292 244 127 227 42 3 5 7 7 5 2 1 1 0 0 0 1 1 0 0 0 0
23 133 337 297 337 403 293 246 258 334 187 181 150 14 5 6 6 5 4 0 0 0 0 0 0 0 0 0 0 0 0 0
212 256 229 235 424 556 535 378 337 345 96 83 1 4 4 5 4 3 0 0 0 0 0 0 0 0 0 0 0 0 0 0
231 92 160 94 221 449 626 550 394 288 124 0 0 2 1 3 5 3 0 0 0 0 0 0 0 0 0 0 0 0 0 0
320 385 435 209 65 245 342 513 402 186 61 0 0 0 0 0 0 0 0 0 0 0 0 0 0 0 0 0 0 0 0 0
519 337 399 129 6 11 61 212 418 366 73 0 0 0 0 0 0 0 0 0 0 0 0 0 0 0 0 0 0 0 0 0

GFSFLT2_con_mlcape_111.txt.gz
CAPE
0 0 0 0 68 28 18 0 0 20 2 0 48 71 42 5 0 0 3 37 57 46 53 68 69 426 654 476 326 331 547 785
0 0 0 27 12 0 5 7 3 26 3 50 15 22 47 61 0 0 0 5 16 61 61 85 113 426 913 571 379 267 745 712
1 0 0 0 0 0 0 0 2 15 0 26 2 54 10 34 56 0 0 0 1 39 94 163 186 260 544 812 653 535 902 575
0 4 0 0 0 0 0 0 0 0 1 0 0 53 1 42 29 33 11 0 0 19 81 48 87 198 429 402 257 814 495 731
0 2 14 1 0 0 0 0 0 0 0 82 20 0 5 24 117 208 52 0 37 177 53 83 105 127 155 247 463 614 442 903
0 0 0 0 7 7 0 0 0 0 91 127 15 4 0 2 92 409 195 51 109 240 167 123 31 16 9 116 98 418 677 553
0 3 0 0 0 3 3 0 0 123 160 182 17 112 98 54 241 338 202 125 256 210 186 153 52 14 2 0 22 33 345 481
0 4 1 0 2 0 0 9 0 426 278 155 0 8 120 210 633 812 669 511 467 456 204 39 31 47 0 0 0 161 256 262
0 14 3 0 2 0 15 337 311 377 402 398 4 5 0 0 11 2 447 570 709 804 595 363 94 1 49 7 79 163 184 169
83 0 32 113 1 1 144 342 193 173 194 12 0 0 0 90 158 88 44 30 178 387 412 496 823 363 359 244 307 267 228 264
51 7 103 158 25 0 94 147 194 345 0 149 48 0 0 0 0 3 4 0 2 4 2 2 87 574 563 429 349 311 336 344
138 127 87 152 55 2 0 108 346 382 334 338 249 44 52 1 6 0 0 0 1 4 2 1 2 1 254 428 421 458 352 281
7 17 96 7 38 32 0 53 206 196 363 113 73 55 2 2 1 2 2 1 2 4 3 3 2 1 0 2 2 0 211 295
2 26 0 0 24 60 83 52 243 264 316 102 15 0 2 4 4 3 2 2 2 3 3 2 2 2 2 2 2 1 1 2
4 28 14 0 0 0 59 436 401 175 37 2 0 0 0 2 3 2 3 1 0 0 0 0 0 0 0 1 0 0 0 0
54 74 64 0 1 245 429 373 161 115 17 0 0 4 4 3 1 0 0 0 0 0 0 0 0 0 0 0 0 0 0 0
121 9 6 198 469 584 615 394 191 26 0 0 1 2 1 0 0 0 0 0 0 0 0 0 0 0 0 0 0 0 0 0
226 65 223 324 369 612 490 289 193 10 0 1 0 0 0 0 0 0 0 0 0 0 0 0 0 0 0 0 0 0 0 0
386 380 145 107 111 683 506 456 164 4 0 0 0 0 0 0 0 0 0 0 0 0 0 0 0 0 0 0 0 0 0 0

GFSFLT2_con_mlcape_114.txt.gz
CAPE
220 301 405 329 109 34 26 9 0 64 12 5 1 4 5 0 1 6 0 29 32 26 50 62 79 144 117 56 40 55 38 103
0 51 274 66 71 19 1 33 8 38 59 5 9 29 0 4 11 0 0 43 92 71 54 54 81 165 192 159 114 110 45 182
0 0 0 0 0 0 0 0 0 0 3 17 5 54 104 61 37 0 2 42 86 81 96 63 107 239 268 275 216 183 126 376
0 0 0 0 0 0 0 0 0 0 0 10 28 29 143 133 124 17 1 7 41 102 112 97 160 282 339 372 301 229 274 375
7 4 0 0 0 0 0 0 0 0 0 44 17 41 0 0 96 171 6 0 1 50 97 112 135 278 505 447 392 320 250 381
0 0 0 0 0 0 0 0 0 0 0 108 46 44 88 102 0 25 49 14 0 4 51 92 136 158 262 285 275 301 353 418
0 0 0 1 0 2 0 0 0 0 180 86 138 92 24 105 39 82 73 16 41 47 44 68 81 104 136 233 196 114 150 283
0 0 0 0 7 122 151 202 371 360 255 58 60 2 19 0 4 0 0 1 223 185 121 70 66 77 81 146 238 187 86 163
0 0 1 9 169 280 216 170 340 98 69 0 0 1 7 1 0 28 0 0 37 186 127 63 33 25 14 0 3 1 32 122
2 4 3 3 132 179 193 176 94 32 1 0 2 40 10 6 0 0 0 1 20 1 1 1 6 10 4 0 0 36 73 95
25 19 67 90 5 0 43 169 346 189 146 13 5 19 0 1 2 3 3 4 3 1 0 0 0 6 48 55 40 45 52 116
11 37 20 22 1 7 0 54 227 95 106 159 89 25 10 1 1 2 1 3 2 3 1 0 0 52 96 147 120 91 140 146
26 1 26 30 1 7 0 0 214 84 2 0 7 4 1 2 2 2 3 2 2 1 1 3 2 2 5 16 15 2 102 170
0 0 0 0 18 60 65 61 352 195 6 0 0 1 1 1 0 1 0 2 1 2 1 1 1 1 1 1 2 2 3 37
0 1 0 0 0 1 202 279 166 37 4 0 0 0 0 3 0 0 0 0 0 0 0 0 0 0 2 2 0 0 0 0
5 4 15 23 0 326 306 168 31 18 0 0 0 0 1 0 1 0 0 0 0 0 0 0 0 0 0 0 0 0 0 0
37 109 20 56 309 404 188 65 2 0 0 0 0 0 0 0 0 0 0 0 0 0 0 0 0 0 0 0 0 0 0 0
71 74 14 176 307 402 93 1 0 0 0 0 0 0 0 0 0 0 0 0 0 0 0 0 0 0 0 0 0 0 0 0
205 39 104 277 484 447 59 14 0 0 0 0 0 0 0 0 0 0 0 0 0 0 0 0 0 0 0 0 0 0 0 0

GFSFLT2_con_mlcape_117.txt.gz
CAPE
468 451 290 267 103 20 0 20 8 23 48 7 7 12 5 0 11 30 30 2 8 32 69 72 60 51 3 0 0 60 29 97
282 469 312 237 136 50 19 17 8 14 33 23 26 5 17 30 18 5 1 17 19 30 73 91 95 110 60 16 0 0 50 74
0 56 279 7 51 1 10 11 0 1 0 16 30 9 3 5 11 9 2 31 21 38 73 98 130 144 122 103 31 0 73 60
15 0 0 0 0 0 0 0 0 0 0 10 63 54 24 0 1 3 10 34 68 62 85 65 107 134 170 169 96 53 80 99
8 13 1 6 0 0 0 0 0 0 0 122 149 131 71 50 26 18 0 13 14 49 77 112 95 156 176 221 165 148 182 174
3 0 0 1 0 0 0 0 0 0 1 178 86 87 84 66 95 83 36 11 15 30 83 125 154 221 233 269 284 244 252 274
0 0 0 0 38 34 8 4 0 8 214 165 98 17 25 46 67 131 123 61 47 16 70 146 176 233 337 400 346 331 333 336
0 0 0 121 115 69 164 308 260 285 172 18 188 166 29 21 0 0 0 54 64 75 86 130 183 208 266 283 295 316 350 369
0 0 5 0 48 130 161 195 149 105 84 65 111 13 2 2 0 0 0 32 50 29 43 31 36 7 32 110 136 190 204 190
0 6 2 0 33 202 156 132 98 37 108 88 27 0 2 1 0 0 0 0 0 0 20 33 10 1 0 0 5 66 104 51
0 3 10 18 0 0 16 113 213 107 62 90 18 25 0 1 3 0 0 0 2 2 3 3 9 30 21 12 0 0 4 36
0 4 13 34 0 0 8 119 175 42 28 157 114 0 1 0 0 0 2 0 0 1 2 0 4 11 90 61 110 84 47 41
0 3 8 66 6 1 17 10 166 97 2 0 0 12 0 1 0 0 0 0 2 2 1 2 2 6 54 15 36 2 70 105
0 8 10 23 10 50 2 50 292 165 1 0 0 0 1 1 0 0 0 0 0 1 1 1 1 1 1 1 2 0 27 24
0 0 0 0 0 20 41 299 398 134 2 0 0 1 4 1 0 0 1 0 0 0 0 0 1 1 0 1 1 2 0 0
3 3 16 39 0 203 347 256 144 28 0 0 0 0 0 0 0 0 0 0 0 0 0 0 0 0 0 1 1 0 0 1
6 28 0 0 26 348 218 49 33 0 0 0 0 0 0 0 0 0 0 0 0 0 0 0 0 0 0 0 0 0 0 0
48 68 16 10 253 191 10 0 0 0 0 0 0 0 0 0 0 0 0 0 0 0 0 0 0 0 0 0 0 0 0 0
188 38 36 149 373 225 2 0 0 0 0 0 0 0 0 0 0 0 0 0 0 0 0 0 0 0 0 0 0 0 0 0